IZ1UQG-N2 Weather Reports


time (UTC)temp
C
wind
direction
speed
KPH
gust
KPH
rain 1hr
cm
rain 24hr
cm
rain mn
cm
humidity
%
barometer
mb
20260506002709 11 322 1.6 4.8 0.00 1.57 0.00 92 1009.6
20260506002651 11 325 1.6 4.8 0.00 1.57 0.00 92 1009.7
20260506002551 11 331 1.6 3.2 0.00 1.57 0.00 91 1009.7
20260506002451 11 335 1.6 3.2 0.00 1.57 0.00 91 1009.7
20260506002408 11 335 1.6 3.2 0.00 1.57 0.00 91 1009.7
20260506002349 11 335 1.6 3.2 0.00 1.57 0.00 91 1009.6
20260506002249 11 335 1.6 3.2 0.00 1.57 0.00 91 1009.6
20260506002149 11 335 0.0 1.6 0.00 1.57 0.00 91 1009.6
20260506002109 11 335 0.0 1.6 0.00 1.57 0.00 91 1009.6
20260506002051 11 335 0.0 1.6 0.00 1.57 0.00 91 1009.6
20260506001951 11 335 0.0 1.6 0.00 1.57 0.00 91 1009.7
20260506001850 11 335 0.0 1.6 0.00 1.57 0.00 91 1009.7
20260506001808 11 336 1.6 3.2 0.00 1.57 0.00 91 1009.6
20260506001750 11 336 1.6 3.2 0.00 1.57 0.00 91 1009.6
20260506001650 11 336 1.6 3.2 0.00 1.57 0.00 92 1009.7
20260506001550 11 335 1.6 3.2 0.00 1.57 0.00 91 1009.8
20260506001507 11 335 1.6 3.2 0.00 1.57 0.00 91 1009.8
20260506001451 11 335 1.6 3.2 0.00 1.57 0.00 91 1009.8
20260506001350 11 335 1.6 3.2 0.00 1.57 0.00 92 1009.8
20260506001250 11 335 1.6 3.2 0.00 1.57 0.00 91 1009.7
20260506001208 11 335 1.6 3.2 0.00 1.57 0.00 91 1009.7
20260506001150 11 335 1.6 3.2 0.00 1.57 0.00 91 1009.8
20260506001050 11 335 1.6 3.2 0.00 1.57 0.00 91 1009.7
20260506000950 11 335 1.6 3.2 0.00 1.57 0.00 91 1009.7
20260506000908 11 335 1.6 3.2 0.00 1.57 0.00 91 1009.7
20260506000849 11 335 1.6 3.2 0.00 1.57 0.00 91 1009.5
20260506000749 11 335 1.6 3.2 0.00 1.57 0.00 91 1009.8
20260506000649 11 335 1.6 3.2 0.00 1.57 0.00 91 1009.8
20260506000609 11 335 1.6 3.2 0.00 1.57 0.00 91 1009.8
20260506000551 11 335 0.0 3.2 0.00 1.57 0.00 91 1009.8
20260506000451 12 335 0.0 1.6 0.00 1.57 0.00 91 1009.7
20260506000350 11 335 0.0 1.6 0.00 1.57 0.00 91 1009.7
20260506000309 11 335 0.0 1.6 0.00 1.57 0.00 91 1009.7
20260506000250 11 336 0.0 1.6 0.00 1.57 0.00 91 1009.7
20260506000150 12 336 0.0 1.6 0.00 1.57 0.00 91 1009.7
20260506000050 12 335 0.0 1.6 0.00 1.57 0.00 91 1009.8
20260506000008 12 335 0.0 1.6 0.00 1.57 0.00 91 1009.8
20260505235950 12 335 0.0 0.0 0.00 1.57 0.00 91 1009.8
20260505235849 12 335 0.0 0.0 0.00 1.57 0.00 91 1009.9
20260505235749 12 335 0.0 0.0 0.00 1.57 0.00 91 1009.8
20260505235709 12 335 0.0 0.0 0.00 1.57 0.00 91 1009.8
20260505235651 12 335 0.0 0.0 0.00 1.57 0.00 91 1009.9
20260505235551 12 336 0.0 0.0 0.00 1.57 0.00 91 1009.8
20260505235451 12 335 0.0 0.0 0.00 1.57 0.00 91 1009.7
20260505235408 12 335 0.0 0.0 0.00 1.57 0.00 91 1009.7
20260505235350 12 335 0.0 0.0 0.00 1.57 0.00 91 1009.8
20260505235250 12 335 0.0 1.6 0.00 1.57 0.00 91 1009.9
20260505235149 12 336 0.0 1.6 0.00 1.57 0.00 91 1009.9
20260505235107 12 336 0.0 1.6 0.00 1.57 0.00 91 1009.9
20260505235049 12 338 0.0 1.6 0.00 1.57 0.00 91 1009.9
20260505234951 12 340 0.0 1.6 0.00 1.57 0.00 91 1010.0
20260505234849 12 341 0.0 1.6 0.00 1.57 0.00 91 1010.0
20260505234807 12 341 0.0 1.6 0.00 1.57 0.00 91 1010.0
20260505234749 12 342 0.0 1.6 0.00 1.57 0.00 91 1010.0
20260505234651 12 340 0.0 1.6 0.00 1.57 0.00 91 1010.0
20260505234551 12 338 0.0 1.6 0.00 1.57 0.00 91 1010.0
20260505234508 12 338 0.0 1.6 0.00 1.57 0.00 91 1010.0
20260505234450 12 336 0.0 1.6 0.00 1.57 0.00 91 1010.1
20260505234350 12 334 0.0 1.6 0.00 1.57 0.00 91 1010.1
20260505234250 12 332 0.0 1.6 0.00 1.57 0.00 91 1010.1
20260505234207 12 332 0.0 1.6 0.00 1.57 0.00 91 1010.1
20260505234149 12 331 0.0 1.6 0.00 1.57 0.00 91 1010.1
20260505234049 12 329 0.0 1.6 0.00 1.57 0.00 91 1010.0
20260505233949 12 323 0.0 1.6 0.00 1.57 0.00 91 1010.0
20260505233909 12 323 0.0 1.6 0.00 1.57 0.00 91 1010.0
20260505233850 12 317 0.0 1.6 0.00 1.57 0.00 91 1010.1
20260505233750 12 309 0.0 1.6 0.00 1.57 0.00 91 1010.1
20260505233650 12 309 0.0 1.6 0.00 1.57 0.00 91 1010.2
20260505233608 12 309 0.0 1.6 0.00 1.57 0.00 91 1010.2
20260505233550 12 309 0.0 1.6 0.00 1.57 0.00 91 1010.1
20260505233450 12 309 0.0 1.6 0.00 1.57 0.00 91 1010.2
20260505233349 12 309 0.0 1.6 0.00 1.57 0.00 91 1010.3
20260505233309 12 309 0.0 1.6 0.00 1.57 0.00 91 1010.3
20260505233251 11 309 0.0 0.0 0.00 1.57 0.00 91 1010.3
20260505233151 11 309 0.0 0.0 0.00 1.57 0.00 91 1010.3
20260505233051 11 310 0.0 1.6 0.00 1.57 0.00 91 1010.2
20260505233009 11 310 0.0 1.6 0.00 1.57 0.00 91 1010.2
20260505232951 11 309 0.0 1.6 0.00 1.57 0.00 91 1010.3
20260505232849 12 310 0.0 1.6 0.00 1.57 0.00 91 1010.3
20260505232749 12 310 0.0 1.6 0.00 1.57 0.00 91 1010.3
20260505232709 12 310 0.0 1.6 0.00 1.57 0.00 91 1010.3
20260505232651 12 309 0.0 3.2 0.00 1.57 0.00 91 1010.2
20260505232551 12 306 0.0 3.2 0.00 1.57 0.00 91 1010.2
20260505232451 12 304 0.0 3.2 0.00 1.57 0.00 91 1010.2
20260505232408 12 303 0.0 3.2 0.00 1.57 0.00 91 1010.1
20260505232349 12 303 0.0 3.2 0.00 1.57 0.00 91 1010.1
20260505232250 12 303 0.0 3.2 0.00 1.57 0.00 91 1010.2
20260505232150 12 301 0.0 3.2 0.00 1.57 0.00 91 1010.3
20260505232108 12 301 0.0 3.2 0.00 1.57 0.00 91 1010.3
20260505232050 12 299 0.0 3.2 0.00 1.57 0.00 91 1010.2
20260505231950 12 299 0.0 3.2 0.00 1.57 0.00 91 1010.2
20260505231851 12 299 0.0 3.2 0.00 1.57 0.00 91 1010.2
20260505231808 12 299 0.0 3.2 0.00 1.57 0.00 91 1010.2
20260505231750 12 297 0.0 3.2 0.00 1.57 0.00 91 1010.3
20260505231650 12 294 0.0 1.6 0.00 1.57 0.00 91 1010.3
20260505231550 12 298 0.0 1.6 0.00 1.57 0.00 91 1010.4
20260505231508 12 298 0.0 1.6 0.00 1.57 0.00 91 1010.4
20260505231450 12 304 0.0 1.6 0.00 1.57 0.00 91 1010.4
20260505231350 12 310 0.0 1.6 0.00 1.57 0.00 91 1010.4
20260505231250 12 322 0.0 1.6 0.00 1.57 0.00 91 1010.4
20260505231208 12 322 0.0 1.6 0.00 1.57 0.00 91 1010.4
20260505231150 12 334 0.0 3.2 0.00 1.57 0.00 91 1010.4
20260505231050 12 345 0.0 3.2 0.00 1.57 0.00 91 1010.5
20260505230950 12 347 0.0 3.2 0.00 1.57 0.00 91 1010.6
20260505230907 12 347 0.0 3.2 0.00 1.57 0.00 91 1010.6
20260505230851 12 348 1.6 4.8 0.00 1.57 0.00 91 1010.6
20260505230751 12 347 1.6 4.8 0.00 1.57 0.00 91 1010.5
20260505230651 11 344 1.6 4.8 0.00 1.57 0.00 91 1010.5
20260505230608 11 344 1.6 4.8 0.00 1.57 0.00 91 1010.5
20260505230550 11 343 1.6 4.8 0.00 1.57 0.00 91 1010.4
20260505230450 11 342 3.2 4.8 0.00 1.57 0.00 91 1010.4
20260505230350 11 342 3.2 4.8 0.00 1.57 0.00 91 1010.4
20260505230308 11 342 3.2 4.8 0.00 1.57 0.00 91 1010.4
20260505230249 11 340 3.2 4.8 0.00 1.57 0.00 91 1010.4
20260505230149 11 340 3.2 4.8 0.00 1.57 0.00 91 1010.4
20260505230049 11 338 3.2 4.8 0.00 1.57 0.00 91 1010.4
20260505230007 11 338 3.2 4.8 0.00 1.57 0.00 91 1010.4
20260505225951 11 336 3.2 4.8 0.00 1.57 0.00 91 1010.4
20260505225850 12 332 3.2 4.8 0.00 1.57 0.00 91 1010.4
20260505225750 12 331 3.2 4.8 0.00 1.57 0.00 91 1010.4
20260505225708 12 331 3.2 4.8 0.00 1.57 0.00 91 1010.4
20260505225650 12 330 1.6 4.8 0.00 1.57 0.00 91 1010.5
20260505225550 12 327 1.6 4.8 0.00 1.57 0.00 91 1010.5
20260505225450 12 325 1.6 4.8 0.00 1.57 0.00 91 1010.6
20260505225407 12 325 1.6 4.8 0.00 1.57 0.00 91 1010.6
20260505225349 12 323 1.6 3.2 0.00 1.57 0.00 91 1010.6
20260505225249 12 320 1.6 3.2 0.00 1.57 0.00 91 1010.7
20260505225151 12 319 1.6 3.2 0.00 1.57 0.00 91 1010.7
20260505225109 12 319 1.6 3.2 0.00 1.57 0.00 91 1010.7
20260505225051 12 319 1.6 1.6 0.00 1.57 0.00 91 1010.7
20260505224951 12 319 1.6 1.6 0.00 1.57 0.00 91 1010.7
20260505224851 12 319 1.6 1.6 0.00 1.57 0.00 91 1010.7
20260505224807 12 319 1.6 1.6 0.00 1.57 0.00 91 1010.7
20260505224749 12 319 1.6 1.6 0.00 1.57 0.00 91 1010.6
20260505224649 12 319 1.6 1.6 0.00 1.57 0.00 91 1010.7
20260505224549 12 319 1.6 1.6 0.00 1.57 0.00 91 1010.7
20260505224509 12 319 1.6 1.6 0.00 1.57 0.00 91 1010.7
20260505224451 12 319 1.6 1.6 0.00 1.57 0.00 91 1010.6
20260505224350 12 319 1.6 1.6 0.00 1.57 0.00 91 1010.6
20260505224250 12 320 0.0 1.6 0.00 1.57 0.00 91 1010.6
20260505224207 12 320 0.0 1.6 0.00 1.57 0.00 91 1010.6
20260505224149 12 321 0.0 1.6 0.00 1.57 0.00 91 1010.5
20260505224049 12 321 0.0 1.6 0.00 1.57 0.00 91 1010.6
20260505223949 12 322 0.0 1.6 0.00 1.57 0.00 91 1010.6
20260505223909 12 322 0.0 1.6 0.00 1.57 0.00 91 1010.5
20260505223850 12 322 0.0 1.6 0.00 1.57 0.00 91 1010.5
20260505223750 12 323 0.0 1.6 0.00 1.57 0.00 91 1010.6
20260505223650 12 323 0.0 1.6 0.00 1.57 0.00 91 1010.6
20260505223608 12 323 0.0 1.6 0.00 1.57 0.00 91 1010.6
20260505223550 12 323 0.0 1.6 0.00 1.57 0.00 91 1010.7
20260505223452 12 323 0.0 1.6 0.00 1.57 0.00 91 1010.6
20260505223350 12 323 0.0 1.6 0.00 1.57 0.00 91 1010.7
20260505223307 12 323 0.0 1.6 0.00 1.57 0.00 91 1010.7
20260505223249 12 323 0.0 1.6 0.00 1.57 0.00 91 1010.7
20260505223149 12 323 0.0 1.6 0.00 1.57 0.00 91 1010.7
20260505223049 12 323 0.0 1.6 0.00 1.57 0.00 91 1010.7
20260505223007 12 323 0.0 1.6 0.00 1.57 0.00 91 1010.7
20260505222951 12 323 0.0 1.6 0.00 1.57 0.00 91 1010.7
20260505222850 12 323 0.0 1.6 0.00 1.57 0.00 91 1010.7
20260505222750 12 323 0.0 0.0 0.00 1.57 0.00 91 1010.8
20260505222708 12 323 0.0 0.0 0.00 1.57 0.00 91 1010.8
20260505222650 12 323 0.0 0.0 0.00 1.57 0.00 91 1010.8
20260505222550 12 323 0.0 0.0 0.00 1.57 0.00 91 1010.7
20260505222450 11 323 0.0 0.0 0.00 1.57 0.00 91 1010.6
20260505222408 11 323 0.0 0.0 0.00 1.57 0.00 91 1010.6
20260505222349 11 323 0.0 0.0 0.00 1.57 0.00 91 1010.5
20260505222249 11 323 0.0 0.0 0.00 1.57 0.00 91 1010.6
20260505222149 11 323 0.0 0.0 0.00 1.57 0.00 91 1010.4
20260505222107 11 323 0.0 0.0 0.00 1.57 0.00 91 1010.4
20260505222049 11 323 0.0 0.0 0.00 1.57 0.00 91 1010.5
20260505221949 11 323 0.0 1.6 0.00 1.57 0.00 91 1010.5
20260505221850 11 323 0.0 1.6 0.00 1.57 0.00 91 1010.5
20260505221807 11 323 0.0 1.6 0.00 1.57 0.00 91 1010.5
20260505221749 11 323 0.0 1.6 0.00 1.57 0.00 91 1010.5
20260505221651 11 324 0.0 1.6 0.00 1.57 0.00 91 1010.5
20260505221551 11 324 0.0 1.6 0.00 1.57 0.00 91 1010.5
20260505221508 11 324 0.0 1.6 0.00 1.57 0.00 91 1010.5
20260505221451 11 324 0.0 1.6 0.00 1.57 0.00 91 1010.4
20260505221349 12 324 0.0 1.6 0.00 1.57 0.00 91 1010.4
20260505221251 12 324 0.0 1.6 0.00 1.57 0.00 91 1010.5
20260505221208 12 324 0.0 1.6 0.00 1.57 0.00 91 1010.5
20260505221150 12 323 0.0 1.6 0.00 1.57 0.00 91 1010.6
20260505221050 12 320 0.0 1.6 0.00 1.57 0.00 91 1010.6
20260505220950 12 316 1.6 1.6 0.00 1.57 0.00 91 1010.6
20260505220908 12 316 1.6 1.6 0.00 1.57 0.00 91 1010.6
20260505220849 12 312 0.0 1.6 0.00 1.57 0.00 91 1010.7
20260505220749 12 311 0.0 1.6 0.00 1.57 0.00 91 1010.6
20260505220649 12 309 0.0 1.6 0.00 1.57 0.00 91 1010.7
20260505220609 12 309 0.0 1.6 0.00 1.57 0.00 91 1010.7
20260505220551 12 306 0.0 1.6 0.00 1.57 0.00 91 1010.7
20260505220451 12 304 0.0 1.6 0.00 1.57 0.00 91 1010.7
20260505220351 12 301 0.0 1.6 0.00 1.57 0.00 91 1010.7
20260505220308 12 301 0.0 1.6 0.00 1.57 0.00 91 1010.7
20260505220250 12 294 0.0 1.6 0.00 1.57 0.00 91 1010.7
20260505220150 12 289 0.0 1.6 0.00 1.57 0.00 91 1010.7
20260505220050 12 287 0.0 1.6 0.00 1.57 0.00 91 1010.7
20260505220008 12 287 0.0 1.6 0.00 1.57 0.00 91 1010.7
20260505215950 12 285 0.0 1.6 0.00 1.57 1.57 91 1010.8
20260505215849 12 285 0.0 1.6 0.00 1.57 1.57 91 1010.8
20260505215750 12 285 0.0 1.6 0.00 1.57 1.57 91 1010.8
20260505215707 12 285 0.0 1.6 0.00 1.57 1.57 91 1010.8
20260505215649 12 285 0.0 1.6 0.00 1.57 1.57 91 1010.8
20260505215549 12 285 0.0 1.6 0.00 1.57 1.57 91 1010.9
20260505215449 12 285 0.0 1.6 0.00 1.57 1.57 91 1010.9
20260505215409 12 285 0.0 1.6 0.00 1.57 1.57 91 1010.9
20260505215351 12 285 0.0 1.6 0.00 1.57 1.57 91 1010.9
20260505215251 12 286 0.0 0.0 0.00 1.57 1.57 91 1010.9
20260505215150 12 285 0.0 0.0 0.00 1.57 1.57 91 1010.9
20260505215108 12 285 0.0 0.0 0.00 1.57 1.57 91 1011.0
20260505215050 12 285 0.0 0.0 0.00 1.57 1.57 91 1011.0
20260505214950 12 286 0.0 0.0 0.00 1.57 1.57 91 1010.9
20260505214851 12 285 0.0 0.0 0.00 1.57 1.57 91 1011.0
20260505214808 12 285 0.0 0.0 0.00 1.57 1.57 91 1011.0
20260505214750 12 285 0.0 0.0 0.00 1.57 1.57 91 1010.9
20260505214649 12 298 0.0 1.6 0.00 1.57 1.57 91 1010.9
20260505214549 12 302 0.0 1.6 0.00 1.57 1.57 91 1011.0
20260505214509 12 302 0.0 1.6 0.00 1.57 1.57 91 1011.0
20260505214451 12 305 0.0 1.6 0.00 1.57 1.57 91 1010.9
20260505214349 12 310 0.0 1.6 0.00 1.57 1.57 91 1010.9
20260505214249 12 312 0.0 1.6 0.00 1.57 1.57 91 1010.9
20260505214209 12 312 0.0 1.6 0.00 1.57 1.57 91 1010.9
20260505214151 12 314 0.0 1.6 0.00 1.57 1.57 91 1010.9
20260505214050 12 320 0.0 1.6 0.00 1.57 1.57 91 1011.0
20260505213950 12 325 0.0 1.6 0.00 1.57 1.57 91 1011.0
20260505213908 12 325 0.0 1.6 0.00 1.57 1.57 91 1011.0
20260505213849 12 332 0.0 1.6 0.00 1.57 1.57 91 1011.0
20260505213749 12 337 0.0 1.6 0.00 1.57 1.57 91 1011.0
20260505213649 12 340 0.0 1.6 0.00 1.57 1.57 91 1011.0
20260505213607 12 340 0.0 1.6 0.00 1.57 1.57 91 1011.0
20260505213549 12 340 0.0 3.2 0.00 1.57 1.57 91 1011.0
20260505213449 11 341 0.0 3.2 0.00 1.57 1.57 91 1011.0
20260505213350 12 339 1.6 3.2 0.00 1.57 1.57 91 1010.9
20260505213307 12 339 1.6 3.2 0.00 1.57 1.57 91 1010.9
20260505213249 12 337 1.6 3.2 0.00 1.57 1.57 91 1010.9
20260505213149 12 336 1.6 3.2 0.00 1.57 1.57 91 1011.0
20260505213049 11 334 1.6 3.2 0.00 1.57 1.57 91 1011.1
20260505213009 11 334 1.6 3.2 0.00 1.57 1.57 91 1011.1
20260505212951 11 332 1.6 3.2 0.00 1.57 1.57 91 1011.1
20260505212849 11 331 1.6 3.2 0.00 1.57 1.57 91 1011.0
20260505212749 12 330 1.6 3.2 0.00 1.57 1.57 91 1011.1
20260505212709 12 330 1.6 3.2 0.00 1.57 1.57 91 1011.1
20260505212651 12 328 1.6 3.2 0.00 1.57 1.57 91 1011.1
20260505212551 12 324 1.6 3.2 0.00 1.57 1.57 91 1011.1
20260505212451 12 321 1.6 3.2 0.00 1.57 1.57 91 1011.0
20260505212407 12 321 1.6 3.2 0.00 1.57 1.57 91 1011.0
20260505212349 12 319 0.0 1.6 0.00 1.57 1.57 91 1011.1
20260505212249 12 319 0.0 1.6 0.00 1.57 1.57 91 1011.2
20260505212149 11 319 0.0 1.6 0.00 1.57 1.57 91 1011.1
20260505212109 11 319 0.0 1.6 0.00 1.57 1.57 91 1011.1
20260505212051 12 319 0.0 1.6 0.00 1.57 1.57 91 1011.1
20260505211951 12 319 0.0 1.6 0.00 1.57 1.57 91 1011.1
20260505211851 11 319 0.0 1.6 0.00 1.57 1.57 91 1011.1
20260505211809 11 319 0.0 1.6 0.00 1.57 1.57 91 1011.1
20260505211751 11 319 0.0 1.6 0.00 1.57 1.57 91 1011.1
20260505211650 12 319 0.0 1.6 0.00 1.57 1.57 91 1011.2
20260505211550 12 319 0.0 3.2 0.00 1.57 1.57 91 1011.2
20260505211507 12 319 0.0 3.2 0.00 1.57 1.57 91 1011.2
20260505211451 12 321 1.6 3.2 0.00 1.57 1.57 91 1011.2
20260505211350 12 323 1.6 3.2 0.03 1.57 1.57 91 1011.2
20260505211250 12 324 1.6 3.2 0.03 1.57 1.57 91 1011.2
20260505211207 12 324 1.6 3.2 0.03 1.57 1.57 91 1011.2
20260505211149 12 324 1.6 3.2 0.03 1.57 1.57 91 1011.2
20260505211049 11 325 0.0 3.2 0.03 1.57 1.57 91 1011.3
20260505210949 11 326 0.0 3.2 0.03 1.57 1.57 91 1011.4
20260505210909 11 326 0.0 3.2 0.03 1.57 1.57 91 1011.4
20260505210850 11 327 0.0 3.2 0.03 1.57 1.57 91 1011.4
20260505210750 11 328 0.0 3.2 0.03 1.57 1.57 91 1011.3
20260505210650 11 330 0.0 3.2 0.03 1.57 1.57 91 1011.2
20260505210608 11 330 0.0 3.2 0.03 1.57 1.57 91 1011.2
20260505210550 11 333 0.0 1.6 0.03 1.57 1.57 91 1011.2
20260505210450 12 333 0.0 1.6 0.03 1.57 1.57 91 1011.2
20260505210349 12 333 0.0 1.6 0.03 1.57 1.57 91 1011.2
20260505210309 12 333 0.0 1.6 0.03 1.57 1.57 91 1011.2
20260505210250 12 334 0.0 0.0 0.03 1.57 1.57 91 1011.2
20260505210150 12 334 0.0 0.0 0.03 1.57 1.57 91 1011.2
20260505210050 12 334 0.0 0.0 0.03 1.57 1.57 91 1011.2
20260505210008 12 334 0.0 0.0 0.03 1.57 1.57 91 1011.2
20260505205950 12 334 0.0 0.0 0.03 1.57 1.57 91 1011.3
20260505205851 12 333 0.0 0.0 0.03 1.57 1.57 91 1011.2
20260505205751 12 333 0.0 0.0 0.03 1.57 1.57 91 1011.2
20260505205708 12 333 0.0 0.0 0.03 1.57 1.57 91 1011.2
20260505205650 11 333 0.0 0.0 0.03 1.57 1.57 91 1011.3
20260505205550 11 333 0.0 0.0 0.05 1.57 1.57 91 1011.4
20260505205450 11 333 0.0 0.0 0.05 1.57 1.57 91 1011.3
20260505205408 11 333 0.0 0.0 0.05 1.57 1.57 91 1011.3
20260505205350 11 333 0.0 0.0 0.05 1.57 1.57 91 1011.4
20260505205250 11 333 0.0 0.0 0.05 1.57 1.57 91 1011.4
20260505205151 11 333 0.0 1.6 0.05 1.57 1.57 91 1011.4
20260505205108 11 333 0.0 1.6 0.05 1.57 1.57 91 1011.4
20260505205050 11 333 0.0 1.6 0.05 1.57 1.57 91 1011.3
20260505204950 11 333 0.0 1.6 0.05 1.57 1.57 91 1011.3
20260505204851 11 333 0.0 1.6 0.05 1.57 1.57 91 1011.2
20260505204808 11 333 0.0 1.6 0.05 1.57 1.57 91 1011.2
20260505204750 11 333 0.0 1.6 0.08 1.57 1.57 91 1011.2
20260505204650 11 333 0.0 1.6 0.08 1.57 1.57 91 1011.2
20260505204550 11 333 0.0 1.6 0.08 1.57 1.57 91 1011.3
20260505204508 11 333 0.0 1.6 0.08 1.57 1.57 91 1011.3
20260505204452 11 335 0.0 1.6 0.08 1.57 1.57 91 1011.4
20260505204350 11 336 1.6 1.6 0.08 1.57 1.57 91 1011.4
20260505204250 11 336 1.6 1.6 0.08 1.57 1.57 91 1011.5
20260505204208 11 336 1.6 1.6 0.08 1.57 1.57 91 1011.5
20260505204150 11 337 1.6 1.6 0.08 1.57 1.57 91 1011.4
20260505204050 11 338 1.6 1.6 0.08 1.57 1.57 91 1011.3
20260505203952 11 338 1.6 1.6 0.08 1.57 1.57 91 1011.3
20260505203908 11 338 1.6 1.6 0.08 1.57 1.57 91 1011.3
20260505203850 11 339 1.6 1.6 0.08 1.57 1.57 91 1011.3
20260505203750 11 339 1.6 1.6 0.08 1.57 1.57 91 1011.4
20260505203650 11 337 1.6 1.6 0.08 1.57 1.57 91 1011.3
20260505203607 11 337 1.6 1.6 0.08 1.57 1.57 91 1011.3
20260505203549 11 335 1.6 1.6 0.08 1.57 1.57 91 1011.5
20260505203449 11 331 0.0 1.6 0.08 1.57 1.57 91 1011.4
20260505203350 12 328 0.0 1.6 0.08 1.57 1.57 91 1011.4
20260505203308 12 328 0.0 1.6 0.08 1.57 1.57 91 1011.4
20260505203250 12 325 0.0 1.6 0.08 1.57 1.57 91 1011.4
20260505203150 12 319 0.0 1.6 0.08 1.57 1.57 91 1011.4
20260505203050 12 314 0.0 1.6 0.08 1.57 1.57 91 1011.5
20260505203007 12 314 0.0 1.6 0.08 1.57 1.57 91 1011.5
20260505202951 12 309 0.0 1.6 0.08 1.57 1.57 91 1011.4
20260505202851 12 302 0.0 1.6 0.08 1.57 1.57 91 1011.5
20260505202750 12 292 0.0 1.6 0.08 1.57 1.57 91 1011.5
20260505202708 12 292 0.0 1.6 0.08 1.57 1.57 91 1011.5
20260505202650 12 285 0.0 1.6 0.08 1.57 1.57 91 1011.4
20260505202550 12 285 0.0 1.6 0.08 1.57 1.57 91 1011.5
20260505202450 12 285 0.0 1.6 0.08 1.57 1.57 91 1011.5
20260505202408 12 285 0.0 1.6 0.08 1.57 1.57 91 1011.5
20260505202349 12 285 0.0 1.6 0.08 1.57 1.57 91 1011.4
20260505202249 12 285 0.0 1.6 0.08 1.57 1.57 91 1011.6
20260505202149 12 285 0.0 1.6 0.08 1.57 1.57 91 1011.5
20260505202109 12 285 0.0 1.6 0.08 1.57 1.57 91 1011.5
20260505202051 12 284 0.0 1.6 0.08 1.55 1.55 91 1011.5
20260505201951 12 284 0.0 1.6 0.08 1.55 1.55 91 1011.5
20260505201850 12 283 0.0 1.6 0.08 1.55 1.55 91 1011.6
20260505201807 12 283 0.0 1.6 0.08 1.55 1.55 91 1011.6
20260505201749 12 281 0.0 1.6 0.08 1.55 1.55 91 1011.5
20260505201649 12 280 0.0 1.6 0.08 1.55 1.55 91 1011.5
20260505201549 12 278 0.0 0.0 0.08 1.55 1.55 91 1011.5
20260505201509 12 278 0.0 0.0 0.08 1.55 1.55 91 1011.5
20260505201451 12 276 0.0 0.0 0.05 1.52 1.52 91 1011.5
20260505201351 12 275 0.0 0.0 0.05 1.52 1.52 91 1011.6
20260505201251 12 275 0.0 0.0 0.05 1.52 1.52 91 1011.5
20260505201209 12 275 0.0 0.0 0.05 1.52 1.52 91 1011.5
20260505201151 12 275 0.0 1.6 0.05 1.52 1.52 91 1011.6
20260505201051 12 275 0.0 1.6 0.05 1.52 1.52 91 1011.6
20260505200950 11 283 0.0 1.6 0.05 1.52 1.52 91 1011.5
20260505200909 11 283 0.0 1.6 0.05 1.52 1.52 91 1011.5
20260505200851 11 284 0.0 1.6 0.05 1.52 1.52 90 1011.5
20260505200751 12 285 0.0 1.6 0.08 1.52 1.52 90 1011.6
20260505200651 12 288 0.0 1.6 0.08 1.52 1.52 90 1011.5
20260505200608 12 288 0.0 1.6 0.08 1.52 1.52 90 1011.5
20260505200550 12 289 0.0 1.6 0.08 1.52 1.52 90 1011.5
20260505200450 12 294 0.0 1.6 0.08 1.52 1.52 90 1011.5
20260505200350 12 303 0.0 1.6 0.08 1.52 1.52 91 1011.5
20260505200308 12 303 0.0 1.6 0.08 1.52 1.52 91 1011.5
20260505200250 12 317 0.0 1.6 0.08 1.52 1.52 91 1011.4
20260505200150 12 346 0.0 1.6 0.08 1.52 1.52 90 1011.4
20260505200050 12 359 0.0 1.6 0.08 1.52 1.52 90 1011.5
20260505200007 12 359 0.0 1.6 0.08 1.52 1.52 90 1011.5
20260505195949 12 1 0.0 0.0 0.08 1.52 1.52 91 1011.4
20260505195850 12 2 0.0 1.6 0.08 1.52 1.52 91 1011.3
20260505195750 12 2 0.0 1.6 0.08 1.52 1.52 91 1011.4
20260505195707 12 2 0.0 1.6 0.08 1.52 1.52 91 1011.4
20260505195649 12 1 0.0 1.6 0.08 1.52 1.52 91 1011.4
20260505195549 12 1 0.0 1.6 0.05 1.50 1.50 90 1011.4
20260505195449 12 1 0.0 1.6 0.05 1.50 1.50 90 1011.3
20260505195407 12 1 0.0 1.6 0.05 1.50 1.50 90 1011.3
20260505195350 12 1 0.0 1.6 0.05 1.50 1.50 90 1011.5
20260505195250 11 1 0.0 1.6 0.05 1.50 1.50 90 1011.5
20260505195150 11 1 0.0 1.6 0.05 1.50 1.50 90 1011.4
20260505195107 11 1 0.0 1.6 0.05 1.50 1.50 90 1011.4
20260505195049 11 1 0.0 1.6 0.05 1.50 1.50 90 1011.4
20260505194949 11 1 0.0 1.6 0.05 1.50 1.50 90 1011.3
20260505194851 11 1 0.0 1.6 0.03 1.50 1.50 90 1011.3
20260505194809 11 1 0.0 1.6 0.03 1.50 1.50 90 1011.3
20260505194751 12 1 0.0 1.6 0.03 1.50 1.50 90 1011.3
20260505194650 12 1 0.0 0.0 0.03 1.50 1.50 90 1011.2
20260505194549 12 1 0.0 0.0 0.03 1.50 1.50 90 1011.2
20260505194509 12 1 0.0 0.0 0.03 1.50 1.50 90 1011.2
20260505194451 12 1 0.0 0.0 0.03 1.50 1.50 90 1011.3
20260505194350 12 1 0.0 0.0 0.03 1.50 1.50 90 1011.3
20260505194250 12 1 0.0 0.0 0.03 1.50 1.50 90 1011.3
20260505194207 12 1 0.0 0.0 0.03 1.50 1.50 90 1011.3
20260505194149 12 1 0.0 0.0 0.03 1.50 1.50 90 1011.1
20260505194049 12 1 0.0 0.0 0.03 1.50 1.50 90 1011.2
20260505193951 12 1 0.0 0.0 0.03 1.50 1.50 90 1011.3
20260505193907 12 1 0.0 0.0 0.03 1.50 1.50 90 1011.3
20260505193851 12 1 0.0 0.0 0.03 1.50 1.50 90 1011.2
20260505193751 12 1 0.0 0.0 0.03 1.50 1.50 90 1011.4
20260505193651 12 1 0.0 0.0 0.00 1.47 1.47 90 1011.3
20260505193608 12 1 0.0 0.0 0.00 1.47 1.47 90 1011.3
20260505193550 12 1 0.0 0.0 0.00 1.47 1.47 90 1011.3
20260505193450 12 1 0.0 0.0 0.00 1.47 1.47 90 1011.3
20260505193351 12 1 0.0 0.0 0.00 1.47 1.47 90 1011.2
20260505193309 12 1 0.0 0.0 0.00 1.47 1.47 90 1011.2
20260505193251 12 1 0.0 0.0 0.00 1.47 1.47 90 1011.2
20260505193150 12 1 0.0 0.0 0.00 1.47 1.47 90 1011.2
20260505193050 12 1 0.0 0.0 0.00 1.47 1.47 90 1011.1
20260505193009 12 1 0.0 0.0 0.00 1.47 1.47 90 1011.1
20260505192950 12 1 0.0 0.0 0.00 1.47 1.47 90 1011.2
20260505192851 12 1 0.0 0.0 0.00 1.47 1.47 90 1011.2
20260505192751 12 1 0.0 0.0 0.00 1.47 1.47 90 1011.2
20260505192709 12 1 0.0 0.0 0.00 1.47 1.47 90 1011.2
20260505192651 12 1 0.0 0.0 0.00 1.47 1.47 90 1011.2
20260505192551 12 1 0.0 0.0 0.00 1.47 1.47 90 1011.2
20260505192450 12 8 0.0 0.0 0.00 1.47 1.47 90 1011.2
20260505192408 12 8 0.0 0.0 0.00 1.47 1.47 90 1011.2
20260505192350 12 9 0.0 0.0 0.00 1.47 1.47 90 1011.3
20260505192249 12 10 0.0 0.0 0.00 1.47 1.47 90 1011.1
20260505192149 12 11 0.0 0.0 0.00 1.47 1.47 90 1011.1
20260505192107 12 11 0.0 0.0 0.00 1.47 1.47 90 1011.1
20260505192049 12 11 0.0 0.0 0.00 1.47 1.47 90 1011.2
20260505191951 12 15 0.0 0.0 0.00 1.47 1.47 90 1011.2
20260505191850 12 18 0.0 0.0 0.00 1.47 1.47 90 1011.2
20260505191809 12 18 0.0 0.0 0.00 1.47 1.47 90 1011.2
20260505191751 12 19 0.0 0.0 0.00 1.47 1.47 90 1011.2
20260505191651 12 26 0.0 0.0 0.00 1.47 1.47 90 1011.2
20260505191551 12 27 0.0 0.0 0.00 1.47 1.47 89 1011.2
20260505191508 12 30 0.0 0.0 0.00 1.47 1.47 89 1011.1
20260505191450 12 30 0.0 0.0 0.00 1.47 1.47 89 1011.1
20260505191349 12 30 0.0 0.0 0.00 1.47 1.47 89 1011.2
20260505191249 12 30 0.0 0.0 0.00 1.47 1.47 90 1011.1
20260505191209 12 30 0.0 0.0 0.00 1.47 1.47 90 1011.1
20260505191151 12 30 0.0 0.0 0.00 1.47 1.47 90 1011.1
20260505191051 12 30 0.0 0.0 0.00 1.47 1.47 90 1011.0
20260505190951 12 30 0.0 0.0 0.00 1.47 1.47 90 1011.1
20260505190908 12 30 0.0 0.0 0.00 1.47 1.47 90 1011.1
20260505190850 12 30 0.0 0.0 0.00 1.45 1.45 90 1011.1
20260505190749 12 30 0.0 0.0 0.00 1.45 1.45 89 1011.1
20260505190649 12 30 0.0 0.0 0.00 1.45 1.45 89 1011.1
20260505190607 12 30 0.0 0.0 0.00 1.45 1.45 89 1011.1
20260505190549 12 30 0.0 0.0 0.00 1.45 1.45 89 1011.1
20260505190449 12 30 0.0 0.0 0.00 1.45 1.45 89 1011.1
20260505190351 12 30 0.0 0.0 0.00 1.45 1.45 89 1011.0
20260505190309 12 30 0.0 0.0 0.00 1.45 1.45 89 1011.0
20260505190251 12 32 0.0 0.0 0.00 1.45 1.45 89 1011.0
20260505190151 12 25 0.0 0.0 0.00 1.45 1.45 89 1011.1
20260505190051 12 25 0.0 0.0 0.00 1.45 1.45 89 1011.0
20260505190008 12 25 0.0 0.0 0.00 1.45 1.45 89 1011.0
20260505185949 12 24 0.0 0.0 0.00 1.45 1.45 89 1011.0
20260505185851 12 21 0.0 0.0 0.00 1.45 1.45 90 1011.0
20260505185751 12 19 0.0 0.0 0.00 1.45 1.45 90 1011.1
20260505185708 12 19 0.0 0.0 0.00 1.45 1.45 90 1011.1
20260505185650 12 17 0.0 0.0 0.00 1.45 1.45 90 1011.0
20260505185550 12 16 0.0 0.0 0.00 1.45 1.45 89 1011.0
20260505185450 12 13 0.0 0.0 0.00 1.45 1.45 89 1010.9
20260505185408 12 13 0.0 0.0 0.00 1.45 1.45 89 1010.9
20260505185351 12 11 0.0 0.0 0.00 1.45 1.45 89 1011.0
20260505185251 12 7 0.0 0.0 0.00 1.45 1.45 89 1010.9
20260505185151 12 1 0.0 0.0 0.00 1.45 1.45 89 1010.9
20260505185108 12 1 0.0 0.0 0.00 1.45 1.45 89 1010.9
20260505185050 12 1 0.0 0.0 0.00 1.45 1.45 89 1010.9
20260505184950 12 1 0.0 0.0 0.00 1.45 1.45 89 1010.9
20260505184851 12 1 0.0 0.0 0.00 1.45 1.45 89 1010.9
20260505184808 12 1 0.0 0.0 0.00 1.45 1.45 89 1010.9
20260505184750 12 1 0.0 0.0 0.00 1.45 1.45 89 1010.9
20260505184650 12 1 0.0 0.0 0.00 1.45 1.45 89 1011.0
20260505184550 12 1 0.0 0.0 0.00 1.45 1.45 89 1010.9
20260505184508 12 1 0.0 0.0 0.00 1.45 1.45 89 1010.9
20260505184449 12 4 0.0 0.0 0.00 1.45 1.45 89 1010.9
20260505184351 12 7 0.0 1.6 0.00 1.45 1.45 89 1011.0
20260505184250 12 9 0.0 1.6 0.00 1.45 1.45 89 1010.9
20260505184208 12 9 0.0 1.6 0.00 1.45 1.45 89 1010.9
20260505184150 12 10 0.0 1.6 0.00 1.45 1.45 89 1010.9
20260505184050 12 11 0.0 1.6 0.00 1.45 1.45 89 1011.0
20260505183950 12 11 0.0 1.6 0.00 1.45 1.45 89 1010.9
20260505183907 12 11 0.0 1.6 0.00 1.45 1.45 89 1010.9
20260505183851 12 11 0.0 1.6 0.00 1.45 1.45 89 1011.0
20260505183751 12 11 0.0 1.6 0.00 1.45 1.45 89 1011.0
20260505183650 12 10 0.0 1.6 0.00 1.45 1.45 89 1010.9
20260505183608 12 10 0.0 1.6 0.00 1.45 1.45 89 1010.9
20260505183550 12 5 0.0 1.6 0.00 1.45 1.45 89 1010.9
20260505183449 12 3 0.0 1.6 0.00 1.45 1.45 89 1010.9
20260505183350 12 1 0.0 1.6 0.00 1.45 1.45 89 1011.0
20260505183308 12 1 0.0 1.6 0.00 1.45 1.45 89 1011.0
20260505183250 12 357 0.0 1.6 0.00 1.45 1.45 89 1011.0
20260505183150 12 355 0.0 1.6 0.00 1.45 1.45 90 1010.9
20260505183051 12 353 0.0 1.6 0.00 1.45 1.45 89 1010.9
20260505183009 12 353 0.0 1.6 0.00 1.45 1.45 89 1010.9
20260505182950 12 351 0.0 1.6 0.00 1.45 1.45 89 1010.9
20260505182849 12 351 0.0 1.6 0.00 1.45 1.45 89 1011.0
20260505182749 12 350 0.0 1.6 0.00 1.45 1.45 89 1010.9
20260505182708 12 350 0.0 1.6 0.00 1.45 1.45 89 1010.9
20260505182650 12 350 0.0 1.6 0.00 1.45 1.45 89 1010.9
20260505182550 12 350 0.0 1.6 0.00 1.45 1.45 90 1011.0
20260505182450 12 350 0.0 0.0 0.00 1.45 1.45 89 1011.0
20260505182408 12 350 0.0 0.0 0.00 1.45 1.45 89 1011.0
20260505182350 12 350 0.0 0.0 0.00 1.45 1.45 89 1011.0
20260505182250 12 350 0.0 0.0 0.00 1.45 1.45 89 1010.9
20260505182150 12 350 0.0 0.0 0.00 1.45 1.45 90 1010.9
20260505182107 12 350 0.0 0.0 0.00 1.45 1.45 90 1010.9
20260505182049 12 350 0.0 0.0 0.00 1.45 1.45 90 1011.0
20260505181949 12 350 0.0 0.0 0.00 1.45 1.45 89 1011.0
20260505181850 12 350 0.0 0.0 0.00 1.45 1.45 89 1010.9
20260505181808 12 350 0.0 0.0 0.00 1.45 1.45 89 1010.9
20260505181750 12 350 0.0 0.0 0.00 1.45 1.45 90 1010.9
20260505181650 12 350 0.0 0.0 0.00 1.45 1.45 90 1010.9
20260505181550 12 350 0.0 0.0 0.00 1.45 1.45 89 1010.9
20260505181507 12 350 0.0 0.0 0.00 1.45 1.45 89 1010.9
20260505181451 12 350 0.0 0.0 0.00 1.45 1.45 89 1010.9
20260505181351 12 350 0.0 0.0 0.00 1.45 1.45 89 1010.9
20260505181251 12 350 0.0 0.0 0.00 1.45 1.45 89 1010.9
20260505181208 12 350 0.0 0.0 0.00 1.45 1.45 89 1010.9
20260505181151 12 350 0.0 0.0 0.00 1.45 1.45 89 1011.0
20260505181051 12 350 0.0 1.6 0.00 1.45 1.45 89 1011.0
20260505180950 12 350 0.0 1.6 0.00 1.45 1.45 89 1010.9
20260505180908 12 350 0.0 1.6 0.00 1.45 1.45 89 1010.9
20260505180849 12 350 0.0 1.6 0.00 1.45 1.45 90 1010.9
20260505180749 12 350 0.0 1.6 0.00 1.45 1.45 90 1010.9
20260505180649 12 350 0.0 1.6 0.00 1.45 1.45 89 1010.9
20260505180607 12 350 0.0 1.6 0.00 1.45 1.45 89 1010.9
20260505180549 12 350 0.0 1.6 0.00 1.45 1.45 89 1010.9
20260505180451 12 349 0.0 1.6 0.00 1.45 1.45 89 1010.9
20260505180349 12 349 0.0 1.6 0.00 1.45 1.45 89 1010.9
20260505180309 12 349 0.0 1.6 0.00 1.45 1.45 89 1010.9
20260505180251 12 349 0.0 1.6 0.00 1.45 1.45 89 1010.8
20260505180151 12 349 0.0 1.6 0.00 1.45 1.45 89 1011.0
20260505180051 12 349 0.0 1.6 0.00 1.45 1.45 89 1010.9
20260505180008 12 349 0.0 1.6 0.00 1.45 1.45 89 1010.9
20260505175950 12 349 0.0 1.6 0.00 1.45 1.45 89 1011.0
20260505175851 12 350 0.0 1.6 0.00 1.45 1.45 89 1010.9
20260505175751 12 350 0.0 1.6 0.00 1.45 1.45 89 1011.0
20260505175709 12 350 0.0 1.6 0.00 1.45 1.45 89 1011.0
20260505175650 12 351 0.0 1.6 0.00 1.45 1.45 89 1010.9
20260505175550 12 352 0.0 1.6 0.00 1.45 1.45 89 1010.9
20260505175450 12 352 0.0 1.6 0.00 1.45 1.45 89 1010.9
20260505175408 12 352 0.0 1.6 0.00 1.45 1.45 89 1010.9
20260505175350 12 353 0.0 1.6 0.00 1.45 1.45 89 1010.9
20260505175250 12 355 0.0 1.6 0.00 1.45 1.45 89 1010.9
20260505175150 12 354 0.0 1.6 0.00 1.45 1.45 89 1011.0
20260505175107 12 354 0.0 1.6 0.00 1.45 1.45 89 1011.0
20260505175049 12 355 0.0 1.6 0.00 1.42 1.42 89 1011.0
20260505174949 12 356 0.0 1.6 0.00 1.42 1.42 89 1010.9
20260505174850 12 357 0.0 1.6 0.00 1.42 1.42 89 1010.9
20260505174808 12 357 0.0 1.6 0.00 1.42 1.42 89 1010.9
20260505174750 12 356 0.0 1.6 0.00 1.42 1.42 89 1011.0
20260505174649 12 355 0.0 1.6 0.00 1.42 1.42 89 1011.0
20260505174549 12 354 0.0 1.6 0.00 1.42 1.42 89 1010.8
20260505174507 12 354 0.0 1.6 0.00 1.42 1.42 89 1010.8
20260505174451 12 354 0.0 1.6 0.00 1.42 1.42 89 1010.9
20260505174350 12 354 0.0 1.6 0.00 1.42 1.42 89 1010.9
20260505174250 12 352 0.0 1.6 0.00 1.42 1.42 89 1010.9
20260505174207 12 352 0.0 1.6 0.00 1.42 1.42 89 1010.9
20260505174149 12 352 0.0 1.6 0.00 1.42 1.42 89 1010.8
20260505174051 12 351 0.0 0.0 0.00 1.42 1.42 89 1010.9
20260505173951 12 351 0.0 0.0 0.00 1.42 1.42 89 1010.9
20260505173907 12 351 0.0 0.0 0.00 1.42 1.42 89 1011.0
20260505173851 12 351 0.0 0.0 0.00 1.42 1.42 89 1011.0
20260505173751 12 351 0.0 0.0 0.00 1.42 1.42 89 1010.9
20260505173651 12 351 0.0 0.0 0.00 1.42 1.42 89 1010.9
20260505173608 12 351 0.0 0.0 0.00 1.42 1.42 89 1010.9
20260505173550 12 352 0.0 0.0 0.00 1.42 1.42 89 1010.9
20260505173449 12 352 0.0 0.0 0.00 1.42 1.42 89 1010.9
20260505173351 12 352 0.0 0.0 0.00 1.42 1.42 89 1010.9
20260505173309 12 352 0.0 0.0 0.00 1.42 1.42 89 1010.9
20260505173250 12 351 0.0 0.0 0.00 1.42 1.42 89 1011.0
20260505173150 12 351 0.0 1.6 0.00 1.42 1.42 89 1011.0
20260505173050 12 351 0.0 1.6 0.00 1.42 1.42 89 1011.0
20260505173008 12 351 0.0 1.6 0.00 1.42 1.42 89 1011.0
20260505172949 12 351 0.0 1.6 0.00 1.42 1.42 89 1011.0
20260505172850 12 351 0.0 1.6 0.00 1.42 1.42 89 1010.9
20260505172750 12 352 0.0 1.6 0.00 1.42 1.42 89 1011.0
20260505172709 12 352 0.0 1.6 0.00 1.42 1.42 89 1011.0
20260505172651 12 352 0.0 1.6 0.00 1.42 1.42 89 1011.0
20260505172551 12 352 0.0 1.6 0.00 1.42 1.42 89 1011.0
20260505172451 12 352 0.0 1.6 0.00 1.42 1.42 89 1011.0
20260505172408 12 352 0.0 1.6 0.00 1.42 1.42 89 1011.0
20260505172350 12 1 0.0 1.6 0.00 1.42 1.42 90 1011.0
20260505172250 12 20 0.0 1.6 0.00 1.42 1.42 90 1011.0
20260505172150 12 44 0.0 1.6 0.00 1.42 1.42 90 1010.9
20260505172108 12 44 0.0 1.6 0.00 1.42 1.42 90 1010.9
20260505172050 12 69 0.0 1.6 0.00 1.42 1.42 89 1011.0
20260505171951 12 85 1.6 3.2 0.00 1.42 1.42 90 1011.0
20260505171850 12 95 1.6 3.2 0.00 1.42 1.42 89 1011.0
20260505171808 12 95 1.6 3.2 0.00 1.42 1.42 89 1011.0
20260505171750 12 104 1.6 3.2 0.00 1.42 1.42 89 1011.0
20260505171649 12 110 1.6 3.2 0.00 1.42 1.42 89 1011.0
20260505171549 12 115 1.6 3.2 0.00 1.42 1.42 89 1011.0
20260505171507 12 115 1.6 3.2 0.00 1.42 1.42 89 1011.0
20260505171451 12 121 1.6 3.2 0.00 1.42 1.42 89 1011.0
20260505171350 12 122 1.6 3.2 0.00 1.42 1.42 90 1011.1
20260505171250 12 123 1.6 3.2 0.00 1.42 1.42 89 1011.1
20260505171209 12 123 1.6 3.2 0.00 1.42 1.42 89 1011.1
20260505171151 12 124 1.6 3.2 0.00 1.42 1.42 89 1011.1
20260505171051 12 125 1.6 3.2 0.00 1.42 1.42 89 1011.1
20260505170951 12 125 0.0 3.2 0.00 1.42 1.42 90 1011.0
20260505170908 12 125 0.0 3.2 0.00 1.42 1.42 90 1011.0
20260505170849 12 126 0.0 1.6 0.00 1.42 1.42 89 1011.1
20260505170751 12 126 0.0 1.6 0.00 1.42 1.42 89 1011.1
20260505170651 12 126 0.0 1.6 0.00 1.42 1.42 89 1011.0
20260505170609 12 126 0.0 1.6 0.00 1.42 1.42 89 1011.0
20260505170551 12 126 0.0 1.6 0.00 1.42 1.42 89 1011.0
20260505170451 12 125 0.0 1.6 0.00 1.42 1.42 89 1011.1
20260505170350 12 125 0.0 1.6 0.00 1.42 1.42 89 1011.1
20260505170308 12 125 0.0 1.6 0.00 1.42 1.42 89 1011.1
20260505170250 12 124 0.0 1.6 0.00 1.42 1.42 89 1011.1
20260505170150 12 123 0.0 1.6 0.00 1.42 1.42 89 1011.1
20260505170050 12 123 0.0 0.0 0.00 1.42 1.42 89 1011.2
20260505170007 12 123 0.0 0.0 0.00 1.42 1.42 89 1011.2
20260505165949 12 123 0.0 0.0 0.00 1.42 1.42 89 1011.1
20260505165851 12 123 0.0 1.6 0.00 1.42 1.42 89 1011.2
20260505165751 12 123 0.0 1.6 0.00 1.42 1.42 89 1011.2
20260505165708 12 123 0.0 1.6 0.00 1.42 1.42 89 1011.2
20260505165650 12 123 0.0 1.6 0.00 1.42 1.42 90 1011.1
20260505165550 12 123 0.0 1.6 0.00 1.42 1.42 90 1011.1
20260505165450 12 123 0.0 1.6 0.00 1.42 1.42 90 1011.1
20260505165408 12 123 0.0 1.6 0.00 1.42 1.42 90 1011.1
20260505165349 12 123 0.0 1.6 0.00 1.42 1.42 89 1011.2
20260505165249 12 123 0.0 1.6 0.00 1.42 1.42 89 1011.1
20260505165149 12 123 0.0 1.6 0.00 1.42 1.42 89 1011.1
20260505165109 12 124 0.0 1.6 0.00 1.42 1.42 89 1011.1
20260505165051 12 124 0.0 1.6 0.00 1.42 1.42 89 1011.1
20260505164951 12 124 0.0 1.6 0.00 1.42 1.42 89 1011.1
20260505164849 12 125 0.0 0.0 0.00 1.42 1.42 89 1011.2
20260505164809 12 125 0.0 0.0 0.00 1.42 1.42 89 1011.2
20260505164751 12 125 0.0 0.0 0.00 1.42 1.42 89 1011.1
20260505164651 12 125 0.0 0.0 0.00 1.42 1.42 89 1011.2
20260505164551 12 125 0.0 0.0 0.00 1.42 1.42 89 1011.2
20260505164508 12 125 0.0 0.0 0.00 1.42 1.42 89 1011.2
20260505164450 12 125 0.0 0.0 0.00 1.42 1.42 89 1011.2
20260505164349 12 125 0.0 0.0 0.00 1.42 1.42 89 1011.1
20260505164249 12 125 0.0 0.0 0.00 1.42 1.42 89 1011.2
20260505164207 12 125 0.0 0.0 0.00 1.42 1.42 89 1011.2
20260505164149 12 125 0.0 0.0 0.00 1.42 1.42 89 1011.2
20260505164049 12 125 0.0 0.0 0.00 1.42 1.42 89 1011.2
20260505163949 12 125 0.0 0.0 0.00 1.42 1.42 89 1011.2
20260505163908 12 125 0.0 0.0 0.00 1.42 1.42 89 1011.2
20260505163850 12 125 0.0 0.0 0.00 1.42 1.42 89 1011.2
20260505163750 12 126 0.0 0.0 0.00 1.42 1.42 89 1011.2
20260505163650 12 126 0.0 0.0 0.00 1.42 1.42 89 1011.2
20260505163608 12 126 0.0 0.0 0.00 1.42 1.42 89 1011.2
20260505163550 12 127 0.0 0.0 0.00 1.42 1.42 89 1011.2
20260505163450 12 128 0.0 0.0 0.00 1.42 1.42 89 1011.2
20260505163350 12 129 0.0 0.0 0.00 1.42 1.42 89 1011.2
20260505163308 12 129 0.0 0.0 0.00 1.42 1.42 89 1011.2
20260505163250 12 126 0.0 0.0 0.00 1.42 1.42 88 1011.2
20260505163150 12 92 0.0 0.0 0.00 1.42 1.42 88 1011.3
20260505163050 12 75 0.0 0.0 0.00 1.42 1.42 88 1011.2
20260505163009 12 75 0.0 0.0 0.00 1.42 1.42 88 1011.2
20260505162949 12 72 0.0 0.0 0.00 1.42 1.42 88 1011.4
20260505162851 12 62 0.0 0.0 0.00 1.42 1.42 88 1011.2
20260505162751 12 48 0.0 0.0 0.00 1.42 1.42 88 1011.3
20260505162708 12 48 0.0 0.0 0.00 1.42 1.42 88 1011.3
20260505162650 12 43 0.0 0.0 0.00 1.42 1.42 88 1011.2
20260505162550 12 26 0.0 0.0 0.00 1.42 1.42 88 1011.2
20260505162449 12 21 0.0 0.0 0.00 1.42 1.42 88 1011.2
20260505162409 12 21 0.0 0.0 0.00 1.42 1.42 88 1011.2
20260505162351 12 20 0.0 0.0 0.00 1.42 1.42 88 1011.2
20260505162250 12 15 0.0 0.0 0.00 1.42 1.42 88 1011.4
20260505162150 12 26 0.0 0.0 0.00 1.42 1.42 88 1011.2
20260505162108 12 26 0.0 0.0 0.00 1.42 1.42 88 1011.2
20260505162050 12 35 0.0 0.0 0.00 1.42 1.42 88 1011.4
20260505161950 12 36 0.0 0.0 0.00 1.42 1.42 88 1011.3
20260505161850 12 42 0.0 0.0 0.00 1.42 1.42 88 1011.3
20260505161808 12 42 0.0 0.0 0.00 1.42 1.42 88 1011.3
20260505161750 12 57 0.0 0.0 0.00 1.42 1.42 88 1011.3
20260505161650 12 67 0.0 0.0 0.00 1.42 1.42 87 1011.3
20260505161550 12 75 0.0 0.0 0.00 1.42 1.42 87 1011.3
20260505161507 12 75 0.0 0.0 0.00 1.42 1.42 87 1011.3
20260505161449 12 81 0.0 0.0 0.00 1.42 1.42 87 1011.4
20260505161350 12 88 0.0 0.0 0.00 1.42 1.42 88 1011.3
20260505161250 12 89 0.0 0.0 0.00 1.42 1.42 87 1011.3
20260505161208 12 89 0.0 0.0 0.00 1.42 1.42 87 1011.3
20260505161150 12 89 0.0 0.0 0.00 1.42 1.42 87 1011.3
20260505161050 12 95 0.0 0.0 0.00 1.42 1.42 87 1011.2
20260505160950 12 99 0.0 0.0 0.00 1.42 1.42 87 1011.2
20260505160907 12 111 0.0 0.0 0.00 1.42 1.42 87 1011.2
20260505160851 12 111 0.0 0.0 0.00 1.42 1.42 87 1011.2
20260505160751 12 111 0.0 0.0 0.00 1.42 1.42 87 1011.3
20260505160651 12 110 0.0 0.0 0.00 1.42 1.42 87 1011.2
20260505160608 12 110 0.0 0.0 0.00 1.42 1.42 87 1011.2
20260505160550 12 108 0.0 0.0 0.00 1.42 1.42 88 1011.3
20260505160449 12 106 0.0 0.0 0.00 1.42 1.42 87 1011.3
20260505160350 12 98 0.0 0.0 0.00 1.42 1.42 87 1011.2
20260505160308 12 98 0.0 0.0 0.00 1.42 1.42 87 1011.2
20260505160250 12 95 0.0 0.0 0.00 1.42 1.42 88 1011.3
20260505160150 12 95 0.0 0.0 0.00 1.42 1.42 88 1011.4
20260505153350 12 27 0.0 3.2 0.00 1.42 1.42 87 1011.6
20260505153308 12 27 0.0 3.2 0.00 1.42 1.42 87 1011.6
20260505153250 12 21 0.0 3.2 0.00 1.42 1.42 88 1011.6
20260505153150 12 10 0.0 3.2 0.00 1.42 1.42 88 1011.6
20260505153050 12 6 0.0 3.2 0.00 1.42 1.42 88 1011.6
20260505153008 12 6 0.0 3.2 0.00 1.42 1.42 88 1011.5
20260505152949 12 6 0.0 3.2 0.00 1.42 1.42 88 1011.5
20260505152849 12 6 0.0 3.2 0.00 1.42 1.42 88 1011.5
20260505152751 12 6 0.0 3.2 0.00 1.42 1.42 88 1011.5
20260505152709 12 6 0.0 3.2 0.00 1.42 1.42 88 1011.5
20260505152651 12 6 0.0 3.2 0.00 1.42 1.42 87 1011.4
20260505152551 12 2 0.0 3.2 0.00 1.42 1.42 88 1011.6
20260505152451 12 342 0.0 1.6 0.00 1.42 1.42 88 1011.5
20260505152408 12 342 0.0 1.6 0.00 1.42 1.42 88 1011.5
20260505152350 12 335 0.0 1.6 0.00 1.42 1.42 88 1011.6
20260505152250 12 337 0.0 1.6 0.00 1.42 1.42 88 1011.5
20260505152150 12 352 0.0 1.6 0.00 1.42 1.42 88 1011.5
20260505152107 12 352 0.0 1.6 0.00 1.42 1.42 88 1011.5
20260505152049 12 355 0.0 1.6 0.00 1.42 1.42 88 1011.4
20260505151951 12 352 0.0 1.6 0.00 1.42 1.42 88 1011.6
20260505151849 12 351 0.0 1.6 0.00 1.42 1.42 88 1011.5
20260505151807 12 351 0.0 1.6 0.00 1.42 1.42 88 1011.5
20260505151749 12 348 0.0 1.6 0.00 1.42 1.42 88 1011.5
20260505151650 12 343 0.0 1.6 0.00 1.42 1.42 88 1011.6
20260505151550 12 340 0.0 1.6 0.00 1.42 1.42 89 1011.6
20260505151508 12 340 0.0 1.6 0.00 1.42 1.42 89 1011.6
20260505151450 12 329 0.0 1.6 0.00 1.42 1.42 88 1011.6
20260505151350 12 326 0.0 1.6 0.00 1.42 1.42 88 1011.6
20260505151249 12 318 0.0 1.6 0.00 1.42 1.42 88 1011.5
20260505151209 12 318 0.0 1.6 0.00 1.42 1.42 88 1011.5
20260505151151 12 274 0.0 1.6 0.00 1.42 1.42 88 1011.6
20260505151051 12 260 0.0 1.6 0.00 1.42 1.42 88 1011.5
20260505150951 12 232 0.0 1.6 0.00 1.42 1.42 89 1011.6
20260505150908 12 232 0.0 1.6 0.00 1.42 1.42 89 1011.6
20260505150850 12 225 0.0 1.6 0.00 1.42 1.42 89 1011.5
20260505150750 12 217 0.0 1.6 0.00 1.42 1.42 89 1011.5
20260505150650 12 217 0.0 1.6 0.00 1.42 1.42 89 1011.5
20260505150607 12 217 0.0 1.6 0.00 1.42 1.42 89 1011.5
20260505150549 12 217 0.0 1.6 0.00 1.42 1.42 88 1011.6
20260505150452 12 218 0.0 1.6 0.00 1.42 1.42 88 1011.6
20260505150350 12 218 0.0 1.6 0.00 1.42 1.42 89 1011.4
20260505150308 12 218 0.0 1.6 0.00 1.42 1.42 89 1011.4
20260505150250 12 218 0.0 1.6 0.00 1.42 1.42 89 1011.5
20260505150150 12 219 0.0 0.0 0.00 1.42 1.42 89 1011.5
20260505140651 11 356 1.6 4.8 0.03 1.42 1.42 90 1011.8
20260505140608 11 356 1.6 4.8 0.03 1.42 1.42 90 1011.8
20260505140550 11 356 1.6 4.8 0.03 1.42 1.42 90 1011.8
20260505140449 11 355 1.6 4.8 0.03 1.42 1.42 90 1011.7
20260505140350 11 352 1.6 4.8 0.03 1.42 1.42 90 1011.7
20260505140307 11 352 1.6 4.8 0.03 1.42 1.42 90 1011.7
20260505140249 11 350 1.6 4.8 0.03 1.42 1.42 90 1011.7
20260505140149 11 353 1.6 4.8 0.03 1.42 1.42 90 1011.8
20260505130308 12 9 3.2 6.4 0.00 1.40 1.40 89 1012.1
20260505130250 12 9 3.2 6.4 0.00 1.40 1.40 89 1012.1
20260505130150 12 6 3.2 6.4 0.00 1.40 1.40 89 1012.2
20260505124951 12 2 1.6 4.8 0.03 1.40 1.40 89 1012.2
20260505124850 12 1 1.6 6.4 0.00 1.37 1.37 89 1012.1
20260505124807 12 1 1.6 6.4 0.00 1.37 1.37 89 1012.1
20260505124749 12 359 3.2 6.4 0.00 1.37 1.37 89 1012.2
20260505124649 12 357 3.2 9.7 0.00 1.37 1.37 89 1012.1
20260505124549 12 357 3.2 9.7 0.00 1.37 1.37 89 1012.1
20260505124507 12 357 3.2 9.7 0.00 1.37 1.37 89 1012.1
20260505124449 12 357 3.2 9.7 0.00 1.37 1.37 89 1012.1
20260505124350 12 358 3.2 9.7 0.00 1.37 1.37 89 1012.1
20260505124250 12 357 3.2 9.7 0.00 1.37 1.37 89 1012.1
20260505124207 12 357 3.2 9.7 0.00 1.37 1.37 89 1012.1
20260505124149 12 356 3.2 9.7 0.00 1.37 1.37 89 1012.1
20260505124049 12 355 3.2 9.7 0.00 1.37 1.37 89 1012.0
20260505123949 12 355 3.2 9.7 0.00 1.37 1.37 88 1012.0
20260505123908 12 356 3.2 9.7 0.00 1.37 1.37 88 1012.0
20260505123850 12 356 3.2 9.7 0.00 1.37 1.37 88 1012.0
20260505123750 12 357 3.2 9.7 0.00 1.37 1.37 88 1012.0
20260505123650 12 359 3.2 9.7 0.00 1.37 1.37 89 1012.0
20260505123608 12 359 3.2 9.7 0.00 1.37 1.37 89 1012.0
20260505123550 12 358 3.2 9.7 0.00 1.37 1.37 88 1012.0
20260505123450 12 358 3.2 9.7 0.00 1.37 1.37 89 1012.1
20260505123350 12 356 3.2 9.7 0.00 1.37 1.37 89 1012.1
20260505123308 12 356 3.2 9.7 0.00 1.37 1.37 89 1012.1
20260505123250 12 354 4.8 9.7 0.00 1.37 1.37 88 1011.9
20260505123150 12 356 4.8 9.7 0.00 1.37 1.37 88 1012.0
20260505123050 12 356 4.8 9.7 0.00 1.37 1.37 88 1011.9
20260505123007 12 356 4.8 9.7 0.00 1.37 1.37 88 1011.9
20260505122952 12 356 4.8 11.3 0.00 1.37 1.37 88 1011.9
20260505122850 12 355 4.8 11.3 0.00 1.37 1.37 89 1011.9
20260505122750 12 356 4.8 11.3 0.00 1.37 1.37 88 1011.9
20260505122708 12 356 4.8 11.3 0.00 1.37 1.37 88 1011.9
20260505122650 12 355 4.8 11.3 0.00 1.37 1.37 88 1011.9
20260505122550 12 355 4.8 11.3 0.00 1.37 1.37 88 1012.0
20260505122450 12 355 4.8 11.3 0.00 1.37 1.37 88 1012.0
20260505122407 12 355 4.8 11.3 0.00 1.37 1.37 88 1012.0
20260505122349 12 357 4.8 11.3 0.00 1.37 1.37 88 1012.0
20260505122249 12 1 4.8 11.3 0.00 1.37 1.37 88 1012.0
20260505122149 12 359 4.8 11.3 0.00 1.37 1.37 88 1012.1
20260505122109 12 359 4.8 11.3 0.00 1.37 1.37 88 1012.1
20260505122051 12 359 4.8 11.3 0.00 1.37 1.37 88 1012.1
20260505121951 12 358 4.8 11.3 0.00 1.37 1.37 88 1012.0
20260505121849 12 358 4.8 9.7 0.00 1.37 1.37 88 1012.0
20260505121808 12 358 4.8 9.7 0.00 1.37 1.37 88 1012.0
20260505121750 12 357 4.8 9.7 0.00 1.37 1.37 88 1012.1
20260505121650 12 357 4.8 9.7 0.00 1.37 1.37 88 1012.1
20260505121550 12 357 3.2 9.7 0.00 1.37 1.37 88 1012.0
20260505121508 12 357 3.2 9.7 0.00 1.37 1.37 88 1012.0
20260505121450 12 358 3.2 9.7 0.00 1.37 1.37 88 1012.0
20260505121351 12 358 3.2 9.7 0.00 1.37 1.37 88 1012.0
20260505121251 12 355 3.2 9.7 0.00 1.37 1.37 88 1012.0
20260505121208 12 355 3.2 9.7 0.00 1.37 1.37 88 1012.0
20260505121150 12 358 3.2 9.7 0.00 1.37 1.37 88 1012.1
20260505121050 12 358 3.2 9.7 0.00 1.37 1.37 88 1012.1
20260505120950 12 6 3.2 9.7 0.03 1.37 1.37 88 1011.9
20260505120908 12 6 3.2 9.7 0.03 1.37 1.37 88 1011.9
20260505120849 12 8 3.2 9.7 0.03 1.37 1.37 88 1012.0
20260505120749 12 12 3.2 6.4 0.03 1.37 1.37 88 1012.0
20260505120649 12 14 3.2 6.4 0.03 1.37 1.37 88 1012.0
20260505120607 12 14 3.2 6.4 0.03 1.37 1.37 88 1012.0
20260505120549 12 16 3.2 11.3 0.03 1.37 1.37 88 1012.0
20260505120451 12 12 3.2 11.3 0.03 1.37 1.37 88 1012.0
20260505120350 12 11 3.2 11.3 0.03 1.37 1.37 88 1012.1
20260505120308 12 11 3.2 11.3 0.03 1.37 1.37 88 1012.1
20260505120250 12 12 3.2 11.3 0.03 1.37 1.37 88 1012.0
20260505120150 12 10 4.8 11.3 0.03 1.37 1.37 88 1012.1
20260505120049 12 9 4.8 11.3 0.03 1.37 1.37 88 1012.1
20260505120007 12 9 4.8 11.3 0.03 1.37 1.37 88 1012.1
20260505115951 12 9 4.8 11.3 0.03 1.37 1.37 88 1012.2
20260505115850 12 10 4.8 11.3 0.03 1.37 1.37 88 1012.1
20260505115750 12 8 4.8 11.3 0.03 1.37 1.37 88 1012.1
20260505115708 12 10 6.4 11.3 0.03 1.37 1.37 88 1012.1
20260505115650 12 10 6.4 11.3 0.03 1.37 1.37 88 1012.1
20260505115550 12 9 4.8 11.3 0.00 1.35 1.35 88 1012.1
20260505115450 12 11 6.4 9.7 0.00 1.35 1.35 88 1012.1
20260505115408 12 11 6.4 9.7 0.00 1.35 1.35 88 1012.1
20260505115349 12 10 4.8 9.7 0.00 1.35 1.35 88 1012.2
20260505115249 12 10 6.4 11.3 0.00 1.35 1.35 88 1012.1
20260505115149 12 10 6.4 11.3 0.00 1.35 1.35 88 1012.1
20260505115107 12 10 6.4 11.3 0.00 1.35 1.35 88 1012.1
20260505115049 12 10 6.4 11.3 0.00 1.35 1.35 87 1012.1
20260505114951 12 7 6.4 11.3 0.00 1.35 1.35 88 1012.0
20260505114849 12 5 6.4 11.3 0.00 1.35 1.35 88 1012.1
20260505114807 12 5 6.4 11.3 0.00 1.35 1.35 88 1012.1
20260505114749 12 4 6.4 11.3 0.00 1.35 1.35 88 1012.1
20260505114651 12 2 6.4 11.3 0.00 1.35 1.35 88 1012.1
20260505114551 12 3 6.4 11.3 0.00 1.35 1.35 88 1012.1
20260505114509 12 3 6.4 11.3 0.00 1.35 1.35 88 1012.1
20260505114449 12 3 6.4 11.3 0.00 1.35 1.35 87 1012.1
20260505114349 12 4 6.4 11.3 0.00 1.35 1.35 87 1012.2
20260505114251 12 3 4.8 11.3 0.00 1.35 1.35 87 1012.1
20260505114208 12 3 4.8 11.3 0.00 1.35 1.35 87 1012.1
20260505114150 12 3 4.8 11.3 0.00 1.35 1.35 88 1012.1
20260505114050 12 1 6.4 11.3 0.00 1.35 1.35 87 1012.2
20260505113950 12 359 6.4 11.3 0.00 1.35 1.35 87 1012.2
20260505113908 12 359 6.4 11.3 0.00 1.35 1.35 87 1012.2
20260505113849 12 358 4.8 11.3 0.00 1.35 1.35 87 1012.2
20260505113749 12 358 4.8 11.3 0.00 1.35 1.35 88 1012.2
20260505113650 12 1 4.8 11.3 0.00 1.35 1.35 87 1012.1
20260505113607 12 1 4.8 11.3 0.00 1.35 1.35 87 1012.1
20260505113549 12 359 3.2 9.7 0.00 1.35 1.35 87 1012.1
20260505113449 12 358 3.2 9.7 0.00 1.35 1.35 87 1012.1
20260505113350 12 358 3.2 9.7 0.00 1.35 1.35 87 1012.2
20260505113307 12 358 3.2 9.7 0.00 1.35 1.35 87 1012.2
20260505113249 12 359 3.2 9.7 0.00 1.35 1.35 87 1012.1
20260505113149 12 358 3.2 9.7 0.00 1.35 1.35 87 1012.1
20260505113049 12 3 3.2 9.7 0.00 1.35 1.35 87 1012.1
20260505113007 12 3 3.2 9.7 0.00 1.35 1.35 87 1012.1
20260505112951 12 11 3.2 6.4 0.00 1.35 1.35 87 1012.2
20260505112850 12 16 3.2 6.4 0.00 1.35 1.35 87 1012.2
20260505112750 12 15 3.2 6.4 0.00 1.35 1.35 87 1012.2
20260505112707 12 15 3.2 6.4 0.00 1.35 1.35 87 1012.2
20260505112649 12 16 3.2 9.7 0.00 1.35 1.35 86 1012.2
20260505112549 12 25 3.2 9.7 0.00 1.35 1.35 86 1012.2
20260505112451 12 36 3.2 9.7 0.00 1.35 1.35 86 1012.1
20260505112408 12 36 3.2 9.7 0.00 1.35 1.35 86 1012.1
20260505112350 12 46 3.2 9.7 0.00 1.35 1.35 86 1012.2
20260505112249 12 58 3.2 9.7 0.00 1.35 1.35 86 1012.2
20260505112151 12 61 3.2 9.7 0.00 1.35 1.35 86 1012.1
20260505112108 12 61 3.2 9.7 0.00 1.35 1.35 86 1012.1
20260505112050 13 69 3.2 9.7 0.00 1.35 1.35 86 1012.1
20260505111950 13 68 3.2 9.7 0.00 1.35 1.35 86 1012.2
20260505111851 13 68 3.2 9.7 0.00 1.35 1.35 87 1012.3
20260505111808 13 68 3.2 9.7 0.00 1.35 1.35 87 1012.3
20260505111750 12 75 3.2 9.7 0.00 1.35 1.35 86 1012.2
20260505111650 12 76 3.2 6.4 0.00 1.35 1.35 86 1012.2
20260505111550 12 73 3.2 6.4 0.00 1.35 1.35 86 1012.2
20260505111508 12 73 3.2 6.4 0.00 1.35 1.35 86 1012.2
20260505111450 12 68 1.6 6.4 0.00 1.35 1.35 87 1012.2
20260505111351 12 72 1.6 6.4 0.00 1.35 1.35 86 1012.3
20260505111251 12 68 1.6 6.4 0.00 1.35 1.35 87 1012.2
20260505111208 12 68 1.6 6.4 0.00 1.35 1.35 87 1012.2
20260505111150 12 74 1.6 6.4 0.00 1.35 1.35 86 1012.2
20260505111050 12 66 1.6 3.2 0.00 1.32 1.32 86 1012.2
20260505110950 12 42 1.6 9.7 0.00 1.32 1.32 87 1012.3
20260505110907 12 42 1.6 9.7 0.00 1.32 1.32 87 1012.3
20260505110849 12 23 1.6 11.3 0.00 1.32 1.32 87 1012.3
20260505110749 12 19 3.2 12.9 0.00 1.32 1.32 87 1012.3
20260505110649 12 15 3.2 12.9 0.00 1.32 1.32 86 1012.3
20260505110607 12 15 3.2 12.9 0.00 1.32 1.32 86 1012.3
20260505110549 12 12 3.2 12.9 0.00 1.32 1.32 87 1012.3
20260505110450 12 8 3.2 12.9 0.00 1.32 1.32 87 1012.4
20260505110350 12 359 3.2 12.9 0.00 1.32 1.32 87 1012.3
20260505110308 12 359 3.2 12.9 0.00 1.32 1.32 87 1012.3
20260505110250 12 354 3.2 12.9 0.00 1.32 1.32 87 1012.3
20260505110150 12 352 4.8 12.9 0.00 1.32 1.32 87 1012.4
20260505102149 12 354 3.2 6.4 0.00 1.32 1.32 87 1012.5
20260505102107 12 352 3.2 6.4 0.00 1.32 1.32 87 1012.4
20260505102049 12 352 3.2 6.4 0.00 1.32 1.32 87 1012.4
20260505101951 12 353 3.2 6.4 0.00 1.32 1.32 87 1012.5
20260505101850 12 352 1.6 4.8 0.00 1.32 1.32 87 1012.5
20260505101808 12 352 1.6 4.8 0.00 1.32 1.32 87 1012.5
20260505101750 12 350 1.6 4.8 0.00 1.32 1.32 87 1012.5
20260505101651 12 347 1.6 4.8 0.00 1.32 1.32 87 1012.6
20260505101551 12 345 1.6 4.8 0.00 1.32 1.32 87 1012.5
20260505101508 12 345 1.6 4.8 0.00 1.32 1.32 87 1012.5
20260505101452 12 341 0.0 4.8 0.00 1.32 1.32 87 1012.5
20260505101350 12 327 0.0 3.2 0.00 1.32 1.32 87 1012.5
20260505101250 12 332 0.0 3.2 0.03 1.32 1.32 87 1012.5
20260505101207 12 332 0.0 3.2 0.03 1.32 1.32 87 1012.5
20260505101149 12 335 1.6 3.2 0.03 1.32 1.32 88 1012.5
20260505101049 12 339 1.6 3.2 0.03 1.32 1.32 88 1012.5
20260505100949 12 340 1.6 3.2 0.03 1.32 1.32 88 1012.5
20260505100909 12 340 1.6 3.2 0.03 1.32 1.32 88 1012.5
20260505100850 12 344 1.6 4.8 0.03 1.32 1.32 88 1012.5
20260505100750 12 349 1.6 6.4 0.03 1.32 1.32 88 1012.6
20260505100650 12 352 1.6 6.4 0.03 1.32 1.32 87 1012.5
20260505100608 12 352 1.6 6.4 0.03 1.32 1.32 87 1012.5
20260505100550 12 354 3.2 6.4 0.03 1.32 1.32 87 1012.5
20260505100450 12 357 3.2 6.4 0.03 1.32 1.32 88 1012.6
20260505100351 12 359 3.2 6.4 0.03 1.32 1.32 88 1012.6
20260505100308 12 359 3.2 6.4 0.03 1.32 1.32 88 1012.6
20260505100250 12 1 3.2 6.4 0.03 1.32 1.32 88 1012.5
20260505100150 12 4 3.2 6.4 0.03 1.32 1.32 88 1012.5
20260505100050 12 5 1.6 6.4 0.03 1.32 1.32 88 1012.5
20260505100008 12 5 1.6 6.4 0.03 1.32 1.32 88 1012.5
20260505095950 12 5 1.6 6.4 0.03 1.32 1.32 88 1012.6
20260505095850 12 4 1.6 4.8 0.03 1.32 1.32 88 1012.6
20260505095749 12 4 1.6 4.8 0.03 1.32 1.32 88 1012.5
20260505095707 12 4 1.6 4.8 0.03 1.32 1.32 88 1012.5
20260505095649 12 3 1.6 4.8 0.03 1.32 1.32 88 1012.6
20260505095549 12 4 1.6 4.8 0.03 1.32 1.32 88 1012.6
20260505095451 12 5 1.6 4.8 0.03 1.32 1.32 88 1012.7
20260505095408 12 5 1.6 4.8 0.03 1.32 1.32 88 1012.7
20260505095350 12 2 1.6 3.2 0.03 1.32 1.32 88 1012.6
20260505095250 12 3 1.6 3.2 0.03 1.32 1.32 88 1012.7
20260505095150 12 358 1.6 4.8 0.03 1.32 1.32 88 1012.6
20260505095107 12 358 1.6 4.8 0.03 1.32 1.32 88 1012.6
20260505095049 12 359 1.6 6.4 0.03 1.32 1.32 88 1012.6
20260505094949 12 1 1.6 6.4 0.03 1.32 1.32 88 1012.6
20260505094850 12 359 1.6 6.4 0.03 1.32 1.32 88 1012.7
20260505094807 12 359 1.6 6.4 0.03 1.32 1.32 88 1012.7
20260505094749 12 359 1.6 6.4 0.03 1.32 1.32 88 1012.7
20260505094649 12 1 3.2 6.4 0.03 1.32 1.32 88 1012.7
20260505094549 12 358 3.2 6.4 0.03 1.32 1.32 88 1012.7
20260505094509 12 355 3.2 6.4 0.03 1.32 1.32 88 1012.6
20260505094451 12 355 3.2 6.4 0.03 1.32 1.32 88 1012.6
20260505094350 12 356 3.2 6.4 0.03 1.32 1.32 88 1012.6
20260505094251 12 355 3.2 6.4 0.03 1.32 1.32 87 1012.7
20260505094208 12 355 3.2 6.4 0.03 1.32 1.32 87 1012.7
20260505094150 12 355 1.6 6.4 0.03 1.32 1.32 88 1012.7
20260505094050 12 355 1.6 4.8 0.03 1.32 1.32 88 1012.7
20260505093951 12 355 1.6 4.8 0.03 1.32 1.32 88 1012.7
20260505093908 12 355 1.6 4.8 0.03 1.32 1.32 88 1012.7
20260505093850 12 356 1.6 4.8 0.03 1.32 1.32 88 1012.7
20260505093750 12 357 1.6 4.8 0.03 1.32 1.32 88 1012.6
20260505093650 12 354 1.6 3.2 0.03 1.32 1.32 88 1012.7
20260505093607 12 354 1.6 3.2 0.03 1.32 1.32 88 1012.7
20260505093549 12 358 1.6 3.2 0.03 1.32 1.32 88 1012.7
20260505093451 12 356 1.6 3.2 0.03 1.32 1.32 88 1012.6
20260505093351 12 2 0.0 3.2 0.03 1.32 1.32 88 1012.7
20260505093308 12 2 0.0 3.2 0.03 1.32 1.32 88 1012.7
20260505093250 12 7 0.0 3.2 0.03 1.32 1.32 88 1012.7
20260505093150 12 10 0.0 3.2 0.03 1.32 1.32 88 1012.7
20260505093050 12 2 0.0 3.2 0.03 1.32 1.32 88 1012.6
20260505093008 12 2 0.0 3.2 0.03 1.32 1.32 88 1012.6
20260505092952 12 6 0.0 3.2 0.03 1.32 1.32 88 1012.6
20260505092850 12 3 0.0 3.2 0.03 1.32 1.32 88 1012.7
20260505092750 12 349 0.0 3.2 0.00 1.30 1.30 88 1012.7
20260505092708 12 349 0.0 3.2 0.00 1.30 1.30 88 1012.7
20260505092650 12 7 0.0 3.2 0.00 1.30 1.30 88 1012.7
20260505092550 12 2 0.0 3.2 0.00 1.30 1.30 88 1012.7
20260505092449 12 7 0.0 3.2 0.00 1.30 1.30 88 1012.7
20260505092408 12 7 0.0 3.2 0.00 1.30 1.30 88 1012.7
20260505092350 12 10 0.0 3.2 0.00 1.30 1.30 88 1012.8
20260505092250 12 15 0.0 3.2 0.03 1.30 1.30 88 1012.8
20260505092150 12 18 0.0 3.2 0.03 1.30 1.30 88 1012.7
20260505092108 12 18 0.0 3.2 0.03 1.30 1.30 88 1012.7
20260505092050 12 25 0.0 3.2 0.03 1.30 1.30 88 1012.8
20260505091950 12 20 0.0 3.2 0.03 1.30 1.30 88 1012.7
20260505091851 12 18 0.0 3.2 0.03 1.30 1.30 88 1012.7
20260505091808 12 18 0.0 3.2 0.03 1.30 1.30 88 1012.7
20260505091750 12 18 0.0 3.2 0.03 1.30 1.30 88 1012.8
20260505091650 12 21 0.0 3.2 0.03 1.30 1.30 88 1012.7
20260505091550 12 23 0.0 3.2 0.03 1.30 1.30 88 1012.7
20260505091508 12 23 0.0 3.2 0.03 1.30 1.30 88 1012.7
20260505091450 12 24 0.0 3.2 0.03 1.30 1.30 88 1012.7
20260505091351 12 21 0.0 3.2 0.03 1.30 1.30 88 1012.7
20260505091251 12 19 0.0 3.2 0.00 1.30 1.30 88 1012.7
20260505091208 12 19 0.0 3.2 0.00 1.30 1.30 88 1012.7
20260505091150 12 34 0.0 4.8 0.00 1.30 1.30 88 1012.7
20260505091050 12 46 0.0 4.8 0.00 1.30 1.30 89 1012.8
20260505090950 12 47 0.0 4.8 0.00 1.30 1.30 89 1012.8
20260505090908 12 52 0.0 4.8 0.00 1.30 1.30 89 1012.7
20260505090849 12 52 0.0 4.8 0.00 1.30 1.30 89 1012.7
20260505090749 12 72 0.0 4.8 0.00 1.30 1.30 89 1012.7
20260505090649 12 77 1.6 4.8 0.00 1.30 1.30 89 1012.6
20260505090609 12 77 1.6 4.8 0.00 1.30 1.30 89 1012.6
20260505090551 12 73 1.6 4.8 0.00 1.30 1.30 89 1012.6
20260505090449 12 68 1.6 6.4 0.00 1.30 1.30 89 1012.6
20260505090348 12 69 1.6 6.4 0.00 1.30 1.30 89 1012.6
20260505090309 12 69 1.6 6.4 0.00 1.30 1.30 89 1012.6
20260505090249 12 67 1.6 6.4 0.00 1.30 1.30 89 1012.6
20260505090149 12 55 1.6 6.4 0.00 1.30 1.30 89 1012.6
20260505090049 12 66 1.6 6.4 0.00 1.30 1.30 90 1012.5
20260505085010 12 103 1.6 4.8 0.03 1.30 1.30 90 1012.6
20260505084910 12 90 0.0 4.8 0.03 1.30 1.30 90 1012.6
20260505084809 12 85 0.0 4.8 0.03 1.30 1.30 90 1012.8
20260505084710 12 70 0.0 1.6 0.03 1.30 1.30 90 1012.7
20260505084610 11 66 0.0 1.6 0.03 1.30 1.30 90 1012.7
20260505084508 11 63 0.0 1.6 0.03 1.30 1.30 90 1012.7
20260505084412 11 40 0.0 1.6 0.03 1.30 1.30 90 1012.8
20260505084311 11 1 0.0 4.8 0.05 1.30 1.30 90 1012.8
20260505084208 11 1 0.0 4.8 0.05 1.30 1.30 90 1012.8
20260505084110 11 351 0.0 4.8 0.05 1.30 1.30 90 1012.8
20260505084010 11 350 0.0 4.8 0.05 1.30 1.30 90 1012.7
20260505083907 11 349 1.6 4.8 0.05 1.30 1.30 90 1012.8
20260505083812 11 350 1.6 4.8 0.08 1.30 1.30 90 1012.8
20260505083712 11 351 1.6 6.4 0.08 1.30 1.30 90 1012.7
20260505083607 11 353 3.2 9.7 0.08 1.30 1.30 90 1012.8
20260505083511 11 354 3.2 9.7 0.08 1.30 1.30 90 1012.7
20260505083411 11 355 3.2 9.7 0.08 1.30 1.30 90 1012.7
20260505083307 11 355 3.2 9.7 0.08 1.30 1.30 90 1012.7
20260505083211 11 354 3.2 9.7 0.08 1.30 1.30 90 1012.8
20260505083111 11 354 3.2 9.7 0.08 1.30 1.30 90 1012.8
20260505083011 11 356 3.2 9.7 0.08 1.30 1.30 90 1012.8
20260505083007 11 357 4.8 9.7 0.10 1.30 1.30 90 1012.7
20260505082911 11 357 4.8 9.7 0.10 1.30 1.30 90 1012.7
20260505082810 11 357 4.8 9.7 0.10 1.30 1.30 90 1012.8
20260505082708 11 357 4.8 9.7 0.13 1.30 1.30 90 1012.7
20260505082610 11 356 4.8 9.7 0.15 1.30 1.30 90 1012.8
20260505082510 11 355 4.8 9.7 0.15 1.30 1.30 90 1012.8
20260505082408 11 355 4.8 9.7 0.15 1.30 1.30 90 1012.8
20260505082312 11 356 4.8 9.7 0.15 1.27 1.27 90 1012.8
20260505082211 11 356 4.8 9.7 0.18 1.27 1.27 90 1012.8
20260505082108 11 357 4.8 9.7 0.18 1.27 1.27 90 1012.8
20260505082010 11 356 4.8 9.7 0.18 1.27 1.27 90 1012.8
20260505081910 11 356 4.8 9.7 0.18 1.27 1.27 90 1012.8
20260505081809 11 356 4.8 9.7 0.18 1.27 1.27 90 1012.7
20260505081711 11 357 4.8 9.7 0.20 1.27 1.27 90 1012.7
20260505081611 11 359 4.8 9.7 0.23 1.27 1.27 90 1012.7
20260505081508 11 359 4.8 9.7 0.23 1.27 1.27 90 1012.6
20260505081410 11 358 4.8 9.7 0.25 1.27 1.27 91 1012.8
20260505081311 11 357 4.8 9.7 0.25 1.27 1.27 91 1012.7
20260505081209 11 355 4.8 9.7 0.25 1.27 1.27 91 1012.7
20260505081111 11 356 4.8 9.7 0.28 1.27 1.27 91 1012.7
20260505081011 11 356 4.8 9.7 0.28 1.27 1.27 91 1012.7
20260505080908 11 356 4.8 9.7 0.28 1.27 1.27 91 1012.6
20260505080812 11 359 4.8 9.7 0.28 1.27 1.27 91 1012.7
20260505080712 11 4 4.8 9.7 0.28 1.27 1.27 91 1012.7
20260505080607 11 5 4.8 9.7 0.28 1.27 1.27 91 1012.7
20260505080511 11 6 3.2 9.7 0.30 1.27 1.27 91 1012.6
20260505080410 11 12 4.8 11.3 0.30 1.27 1.27 91 1012.6
20260505080308 11 17 3.2 11.3 0.33 1.27 1.27 91 1012.8
20260505080212 11 27 3.2 11.3 0.36 1.27 1.27 91 1012.8
20260505080111 11 30 3.2 11.3 0.36 1.27 1.27 91 1012.8
20260505080007 11 29 3.2 11.3 0.36 1.27 1.27 91 1012.8
20260505075911 11 28 3.2 11.3 0.36 1.27 1.27 90 1012.8
20260505075810 11 27 3.2 11.3 0.36 1.27 1.27 91 1012.8
20260505075708 11 27 3.2 11.3 0.38 1.27 1.27 91 1012.8
20260505075612 11 26 3.2 11.3 0.36 1.24 1.24 90 1012.8
20260505075512 11 22 3.2 11.3 0.36 1.24 1.24 90 1012.9
20260505075407 11 19 3.2 9.7 0.38 1.24 1.24 90 1012.8
20260505075311 11 15 1.6 9.7 0.38 1.24 1.24 91 1012.8
20260505075211 11 8 1.6 9.7 0.38 1.24 1.24 91 1012.9
20260505075108 11 7 1.6 9.7 0.38 1.24 1.24 91 1012.9
20260505075010 11 9 1.6 9.7 0.41 1.24 1.24 91 1012.8
20260505074910 11 7 1.6 9.7 0.41 1.24 1.24 91 1012.9
20260505074811 11 7 1.6 9.7 0.43 1.24 1.24 91 1012.9
20260505074809 11 5 1.6 9.7 0.43 1.24 1.24 91 1012.8
20260505074710 11 5 1.6 9.7 0.43 1.24 1.24 91 1012.8
20260505074610 11 1 1.6 4.8 0.43 1.24 1.24 91 1012.9
20260505074508 11 1 1.6 3.2 0.46 1.24 1.24 91 1012.8
20260505074410 11 355 1.6 9.7 0.46 1.24 1.24 91 1012.9
20260505074310 11 354 1.6 9.7 0.46 1.24 1.24 91 1012.9
20260505074208 11 355 3.2 9.7 0.46 1.22 1.22 91 1012.9
20260505074112 11 351 3.2 9.7 0.46 1.22 1.22 91 1012.8
20260505074012 11 351 3.2 9.7 0.46 1.22 1.22 91 1012.8
20260505073907 11 348 4.8 9.7 0.46 1.22 1.22 91 1012.9
20260505073811 11 347 4.8 9.7 0.46 1.22 1.22 91 1012.8
20260505073711 11 347 4.8 11.3 0.46 1.22 1.22 91 1012.8
20260505073608 11 347 6.4 11.3 0.48 1.22 1.22 91 1012.8
20260505073510 11 348 6.4 11.3 0.48 1.22 1.22 91 1012.8
20260505073411 11 349 6.4 11.3 0.46 1.19 1.19 91 1012.9
20260505073308 11 350 6.4 11.3 0.48 1.19 1.19 91 1012.8
20260505073212 11 349 6.4 11.3 0.48 1.19 1.19 91 1012.8
20260505073112 11 351 6.4 11.3 0.48 1.19 1.19 91 1012.9
20260505073007 11 350 6.4 11.3 0.46 1.17 1.17 91 1012.9
20260505072911 11 353 6.4 11.3 0.46 1.17 1.17 91 1012.8
20260505072812 11 354 6.4 11.3 0.46 1.14 1.14 91 1012.9
20260505072707 11 354 6.4 11.3 0.46 1.14 1.14 91 1012.7
20260505072611 11 356 4.8 11.3 0.46 1.12 1.12 91 1012.8
20260505072511 11 357 4.8 11.3 0.46 1.12 1.12 91 1012.8
20260505072408 11 356 4.8 11.3 0.46 1.12 1.12 91 1012.8
20260505072312 11 353 4.8 11.3 0.46 1.12 1.12 91 1012.9
20260505072211 11 353 4.8 11.3 0.46 1.09 1.09 91 1012.9
20260505072107 11 352 4.8 11.3 0.46 1.09 1.09 91 1012.8
20260505072011 11 353 4.8 11.3 0.43 1.07 1.07 90 1012.8
20260505071912 11 353 4.8 11.3 0.46 1.07 1.07 91 1012.8
20260505071809 11 351 4.8 11.3 0.46 1.04 1.04 90 1012.9
20260505071711 11 350 4.8 11.3 0.46 1.04 1.04 90 1012.8
20260505071612 11 349 4.8 11.3 0.46 1.02 1.02 91 1012.8
20260505071507 11 349 4.8 11.3 0.46 1.02 1.02 91 1012.7
20260505071411 11 351 4.8 11.3 0.46 1.02 1.02 91 1012.8
20260505071310 11 355 4.8 11.3 0.46 1.02 1.02 90 1012.7
20260505071208 11 357 4.8 11.3 0.46 0.99 0.99 90 1012.6
20260505071112 11 357 4.8 11.3 0.46 0.99 0.99 90 1012.6
20260505071012 11 1 3.2 11.3 0.46 0.99 0.99 90 1012.6
20260505070907 11 2 3.2 11.3 0.46 0.99 0.99 91 1012.6
20260505070810 11 12 3.2 11.3 0.43 0.97 0.97 91 1012.6
20260505070710 11 26 1.6 11.3 0.46 0.97 0.97 90 1012.6
20260505070608 11 35 1.6 11.3 0.46 0.94 0.94 91 1012.6
20260505070512 11 56 1.6 6.4 0.46 0.94 0.94 90 1012.6
20260505070412 11 58 1.6 6.4 0.43 0.94 0.94 90 1012.5
20260505070307 11 61 1.6 6.4 0.43 0.94 0.94 90 1012.6
20260505070211 11 54 1.6 6.4 0.43 0.91 0.91 90 1012.6
20260505070111 11 44 1.6 6.4 0.43 0.91 0.91 90 1012.6
20260505070008 11 37 1.6 6.4 0.41 0.89 0.89 90 1012.5
20260505065910 11 38 1.6 6.4 0.43 0.89 0.89 90 1012.6
20260505065811 11 34 1.6 6.4 0.43 0.89 0.89 90 1012.6
20260505065708 11 34 1.6 6.4 0.43 0.86 0.86 90 1012.4
20260505065610 11 34 1.6 6.4 0.43 0.86 0.86 90 1012.5
20260505065510 11 31 1.6 6.4 0.43 0.86 0.86 90 1012.5
20260505065409 11 33 1.6 6.4 0.43 0.84 0.84 90 1012.4
20260505065310 11 32 1.6 6.4 0.43 0.84 0.84 90 1012.4
20260505065210 11 43 1.6 6.4 0.43 0.84 0.84 90 1012.4
20260505065108 11 57 1.6 6.4 0.41 0.84 0.84 90 1012.5
20260505065012 11 64 0.0 6.4 0.41 0.84 0.84 90 1012.4
20260505064911 11 68 0.0 3.2 0.41 0.81 0.81 90 1012.4
20260505064808 11 66 0.0 3.2 0.41 0.81 0.81 90 1012.4
20260505064710 11 245 0.0 1.6 0.41 0.81 0.81 90 1012.4
20260505064611 11 271 0.0 1.6 0.38 0.79 0.79 90 1012.5
20260505064509 11 307 0.0 3.2 0.41 0.79 0.79 90 1012.3
20260505064411 11 314 0.0 3.2 0.38 0.76 0.76 90 1012.3
20260505064310 11 318 1.6 4.8 0.41 0.76 0.76 90 1012.3
20260505064211 11 329 1.6 6.4 0.41 0.76 0.76 90 1012.3
20260505064209 11 335 1.6 12.9 0.38 0.74 0.74 90 1012.3
20260505064111 11 335 1.6 12.9 0.38 0.74 0.74 90 1012.3
20260505064010 11 337 3.2 14.5 0.38 0.74 0.74 90 1012.3
20260505063907 11 337 3.2 14.5 0.41 0.74 0.74 90 1012.4
20260505063811 11 338 4.8 14.5 0.38 0.74 0.74 90 1012.4
20260505063711 11 343 4.8 14.5 0.38 0.74 0.74 90 1012.4
20260505063609 11 344 6.4 14.5 0.36 0.71 0.71 90 1012.4
20260505063511 11 344 6.4 14.5 0.38 0.71 0.71 90 1012.4
20260505063410 11 345 6.4 14.5 0.38 0.71 0.71 90 1012.4
20260505063308 11 345 6.4 14.5 0.36 0.69 0.69 90 1012.4
20260505063212 11 345 4.8 14.5 0.36 0.69 0.69 89 1012.4
20260505063112 11 345 4.8 14.5 0.38 0.69 0.69 89 1012.4
20260505063007 11 346 4.8 11.3 0.38 0.69 0.69 89 1012.4
20260505062911 11 349 3.2 11.3 0.41 0.69 0.69 90 1012.5
20260505062810 11 351 3.2 9.7 0.38 0.66 0.66 89 1012.4
20260505062708 11 352 3.2 9.7 0.38 0.66 0.66 90 1012.4
20260505062610 11 354 1.6 9.7 0.38 0.66 0.66 90 1012.4
20260505062510 11 357 1.6 4.8 0.36 0.64 0.64 89 1012.4
20260505062407 11 357 1.6 4.8 0.36 0.64 0.64 89 1012.4
20260505062311 11 357 1.6 4.8 0.36 0.64 0.64 89 1012.5
20260505062211 11 356 3.2 4.8 0.36 0.64 0.64 89 1012.5
20260505062108 11 356 3.2 4.8 0.36 0.64 0.64 89 1012.4
20260505062010 11 354 3.2 4.8 0.36 0.61 0.61 89 1012.4
20260505061910 11 354 3.2 4.8 0.33 0.58 0.58 89 1012.5
20260505061808 11 354 3.2 4.8 0.33 0.58 0.58 89 1012.4
20260505061712 11 354 3.2 4.8 0.30 0.56 0.56 89 1012.4
20260505061612 11 354 3.2 4.8 0.33 0.56 0.56 89 1012.4
20260505061507 11 352 1.6 4.8 0.30 0.56 0.56 89 1012.5
20260505061410 11 353 1.6 4.8 0.30 0.56 0.56 89 1012.5
20260505061310 11 354 1.6 4.8 0.30 0.56 0.56 89 1012.4
20260505061207 11 351 1.6 4.8 0.28 0.53 0.53 89 1012.4
20260505061111 11 351 1.6 4.8 0.30 0.53 0.53 89 1012.4
20260505061011 11 350 1.6 4.8 0.30 0.53 0.53 89 1012.4
20260505060912 11 349 1.6 6.4 0.30 0.53 0.53 89 1012.4
20260505060907 11 350 1.6 6.4 0.28 0.51 0.51 89 1012.4
20260505060811 11 350 1.6 6.4 0.28 0.51 0.51 89 1012.4
20260505060711 11 350 1.6 6.4 0.30 0.51 0.51 89 1012.4
20260505060609 11 350 3.2 6.4 0.28 0.48 0.48 89 1012.4
20260505060510 11 348 3.2 6.4 0.28 0.48 0.48 89 1012.4
20260505060410 11 346 3.2 6.4 0.28 0.48 0.48 89 1012.3
20260505060309 11 346 3.2 6.4 0.28 0.46 0.46 89 1012.2
20260505060211 11 344 3.2 6.4 0.28 0.46 0.46 89 1012.3
20260505060111 11 342 3.2 6.4 0.28 0.46 0.46 89 1012.3
20260505060008 11 341 1.6 6.4 0.28 0.46 0.46 88 1012.3
20260505055911 11 338 1.6 6.4 0.28 0.46 0.46 88 1012.3
20260505055811 11 329 1.6 4.8 0.28 0.46 0.46 88 1012.3
20260505055709 11 304 0.0 4.8 0.25 0.43 0.43 88 1012.2
20260505055611 11 246 0.0 4.8 0.28 0.43 0.43 88 1012.2
20260505055511 11 208 0.0 3.2 0.28 0.43 0.43 88 1012.2
20260505055408 11 168 0.0 3.2 0.25 0.41 0.41 88 1012.1
20260505055310 11 167 0.0 3.2 0.28 0.41 0.41 88 1012.1
20260505055211 11 150 0.0 3.2 0.28 0.41 0.41 88 1012.1
20260505055109 11 134 0.0 3.2 0.28 0.41 0.41 88 1012.1
20260505055011 11 83 0.0 3.2 0.25 0.38 0.38 88 1012.1
20260505054910 11 114 0.0 3.2 0.25 0.38 0.38 88 1012.1
20260505054807 11 127 1.6 6.4 0.25 0.38 0.38 88 1012.1
20260505054711 11 132 1.6 6.4 0.25 0.38 0.38 88 1012.0
20260505054610 11 134 1.6 6.4 0.25 0.36 0.36 88 1012.1
20260505054508 11 142 1.6 6.4 0.25 0.36 0.36 88 1012.2
20260505054411 11 145 1.6 6.4 0.25 0.36 0.36 88 1012.1
20260505054311 11 146 1.6 6.4 0.23 0.36 0.36 88 1012.1
20260505054208 11 146 1.6 6.4 0.23 0.36 0.36 88 1012.1
20260505054110 11 148 1.6 6.4 0.25 0.36 0.36 88 1012.1
20260505054011 11 151 1.6 6.4 0.25 0.36 0.36 88 1012.1
20260505053911 11 149 1.6 6.4 0.23 0.33 0.33 88 1012.1
20260505053908 11 144 1.6 4.8 0.23 0.33 0.33 88 1012.0
20260505053810 11 144 1.6 4.8 0.23 0.33 0.33 88 1012.0
20260505053710 11 342 1.6 3.2 0.23 0.33 0.33 87 1012.1
20260505053608 11 346 1.6 3.2 0.20 0.30 0.30 87 1012.1
20260505053512 11 351 1.6 9.7 0.20 0.30 0.30 88 1011.9
20260505053412 11 353 1.6 11.3 0.20 0.30 0.30 88 1012.0
20260505053308 11 353 3.2 12.9 0.20 0.30 0.30 87 1012.0
20260505053210 11 355 3.2 12.9 0.20 0.28 0.28 87 1012.0
20260505053110 11 356 3.2 12.9 0.20 0.28 0.28 87 1012.0
20260505053007 11 357 3.2 12.9 0.20 0.28 0.28 87 1012.0
20260505052911 11 358 4.8 12.9 0.18 0.28 0.28 87 1012.0
20260505052810 11 1 4.8 12.9 0.18 0.28 0.28 87 1012.1
20260505052708 11 3 3.2 12.9 0.18 0.28 0.28 87 1012.0
20260505052612 11 4 3.2 12.9 0.18 0.28 0.28 87 1012.0
20260505052511 11 5 3.2 12.9 0.18 0.28 0.28 87 1012.1
20260505052408 11 6 3.2 12.9 0.18 0.28 0.28 87 1012.1
20260505052312 11 7 1.6 9.7 0.18 0.25 0.25 87 1012.1
20260505052211 11 6 3.2 9.7 0.18 0.25 0.25 87 1012.0
20260505052107 11 4 3.2 9.7 0.18 0.25 0.25 87 1012.1
20260505052011 11 4 3.2 9.7 0.18 0.25 0.25 87 1012.0
20260505051910 11 2 3.2 9.7 0.18 0.25 0.25 86 1012.0
20260505051809 11 358 3.2 9.7 0.18 0.25 0.25 86 1012.1
20260505051711 11 356 3.2 9.7 0.18 0.23 0.23 86 1012.1
20260505051611 11 355 4.8 11.3 0.18 0.23 0.23 86 1012.1
20260505051508 11 356 4.8 11.3 0.18 0.23 0.23 86 1012.0
20260505051411 11 355 4.8 11.3 0.18 0.23 0.23 86 1012.1
20260505051311 11 355 4.8 11.3 0.18 0.23 0.23 86 1012.2
20260505051209 11 355 4.8 11.3 0.15 0.20 0.20 86 1012.0
20260505051110 11 355 4.8 11.3 0.15 0.20 0.20 86 1012.1
20260505051010 11 354 4.8 11.3 0.15 0.20 0.20 86 1012.0
20260505050912 11 354 4.8 11.3 0.15 0.20 0.20 86 1012.0
20260505050907 11 355 4.8 11.3 0.13 0.18 0.18 85 1012.1
20260505050811 11 355 4.8 11.3 0.13 0.18 0.18 85 1012.1
20260505050710 11 356 4.8 11.3 0.13 0.18 0.18 85 1012.0
20260505050608 11 355 3.2 9.7 0.13 0.18 0.18 85 1012.0
20260505050512 11 354 3.2 9.7 0.13 0.18 0.18 85 1012.0
20260505050410 12 353 1.6 6.4 0.13 0.18 0.18 85 1012.0
20260505050309 12 354 1.6 6.4 0.13 0.18 0.18 85 1011.9
20260505050211 12 355 1.6 6.4 0.10 0.18 0.18 85 1011.9
20260505050111 12 357 1.6 4.8 0.10 0.18 0.18 85 1011.9
20260505041710 12 351 3.2 6.4 0.05 0.05 0.05 81 1011.6
20260505041610 12 352 3.2 6.4 0.05 0.05 0.05 80 1011.7
20260505041508 12 353 3.2 6.4 0.05 0.05 0.05 80 1011.6
20260505041412 12 353 3.2 6.4 0.05 0.05 0.05 80 1011.7
20260505041310 12 354 3.2 6.4 0.05 0.05 0.05 81 1011.6
20260505041210 12 354 3.2 6.4 0.05 0.05 0.05 80 1011.6
20260505041208 12 354 3.2 6.4 0.05 0.05 0.05 80 1011.5
20260505041110 12 354 3.2 6.4 0.05 0.05 0.05 80 1011.5
20260505041010 12 354 4.8 6.4 0.05 0.05 0.05 80 1011.5
20260505040907 12 353 4.8 6.4 0.05 0.05 0.05 80 1011.5
20260505040811 12 355 4.8 9.7 0.05 0.05 0.05 80 1011.5
20260505040711 12 358 4.8 9.7 0.05 0.05 0.05 80 1011.5
20260505040609 12 357 4.8 9.7 0.05 0.05 0.05 80 1011.4
20260505040511 12 357 4.8 9.7 0.05 0.05 0.05 80 1011.5
20260505040411 12 357 4.8 9.7 0.05 0.05 0.05 80 1011.6
20260505040308 12 358 4.8 9.7 0.05 0.05 0.05 80 1011.5
20260505040210 12 357 4.8 11.3 0.05 0.05 0.05 80 1011.5
20260505040110 12 359 4.8 11.3 0.05 0.05 0.05 79 1011.5
20260505040008 12 358 4.8 11.3 0.05 0.05 0.05 79 1011.5
20260505035911 12 357 4.8 11.3 0.05 0.05 0.05 79 1011.5
20260505035812 12 357 4.8 11.3 0.05 0.05 0.05 79 1011.5
20260505035707 12 355 4.8 11.3 0.05 0.05 0.05 78 1011.4
20260505035611 12 354 4.8 11.3 0.05 0.05 0.05 78 1011.4
20260505035511 12 352 4.8 11.3 0.05 0.05 0.05 78 1011.3
20260505035408 12 349 3.2 11.3 0.05 0.05 0.05 78 1011.4
20260505035311 12 348 4.8 12.9 0.03 0.03 0.03 78 1011.3
20260505035210 12 348 4.8 12.9 0.03 0.03 0.03 78 1011.3
20260505035107 13 348 4.8 12.9 0.03 0.03 0.03 78 1011.3
20260505035010 12 349 4.8 12.9 0.03 0.03 0.03 77 1011.3
20260505034911 12 350 4.8 12.9 0.03 0.03 0.03 77 1011.3
20260505034807 12 352 4.8 12.9 0.03 0.03 0.03 77 1011.2
20260505034711 12 353 4.8 12.9 0.03 0.03 0.03 76 1011.2
20260505034611 12 354 4.8 12.9 0.03 0.03 0.03 77 1011.3
20260505034509 13 354 4.8 12.9 0.03 0.03 0.03 76 1011.2
20260505034411 13 356 4.8 12.9 0.03 0.03 0.03 75 1011.2
20260505034311 13 357 3.2 6.4 0.03 0.03 0.03 75 1011.2
20260505034211 13 355 3.2 6.4 0.03 0.03 0.03 75 1011.2
20260505034207 13 355 3.2 12.9 0.03 0.03 0.03 75 1011.1
20260505034111 13 355 3.2 12.9 0.03 0.03 0.03 75 1011.1
20260505034011 13 354 4.8 12.9 0.00 0.00 0.00 75 1011.2
20260505033908 13 353 4.8 12.9 0.00 0.00 0.00 75 1011.2
20260505033810 13 353 4.8 12.9 0.00 0.00 0.00 76 1011.2
20260505033710 13 352 4.8 12.9 0.00 0.00 0.00 76 1011.2
20260505033608 13 352 4.8 12.9 0.00 0.00 0.00 76 1011.2
20260505033512 13 353 4.8 12.9 0.00 0.00 0.00 75 1011.2
20260505033412 13 353 4.8 12.9 0.00 0.00 0.00 75 1011.1
20260505033308 13 353 4.8 12.9 0.00 0.00 0.00 74 1011.2
20260505033210 13 357 4.8 12.9 0.00 0.00 0.00 74 1011.2
20260505033110 13 358 4.8 9.7 0.00 0.00 0.00 74 1011.1
20260505033008 13 1 4.8 9.7 0.00 0.00 0.00 74 1011.1
20260505032911 13 3 3.2 9.7 0.00 0.00 0.00 74 1011.1
20260505032810 13 3 3.2 9.7 0.00 0.00 0.00 74 1011.1
20260505032708 13 3 3.2 9.7 0.00 0.00 0.00 74 1011.2
20260505032612 13 358 3.2 9.7 0.00 0.00 0.00 74 1011.1
20260505032512 13 351 1.6 9.7 0.00 0.00 0.00 74 1011.2
20260505032407 13 96 1.6 9.7 0.00 0.00 0.00 74 1011.1
20260505032311 13 169 1.6 6.4 0.00 0.00 0.00 75 1011.2
20260505032211 13 182 1.6 6.4 0.00 0.00 0.00 76 1011.2
20260505032108 13 190 1.6 6.4 0.00 0.00 0.00 77 1011.1
20260505032010 13 196 1.6 6.4 0.00 0.00 0.00 77 1011.1
20260505031912 13 197 1.6 6.4 0.00 0.00 0.00 77 1011.1
20260505031808 13 200 1.6 6.4 0.00 0.00 0.00 77 1011.1
20260505031710 13 204 1.6 6.4 0.00 0.00 0.00 77 1011.2
20260505031612 13 209 1.6 6.4 0.00 0.00 0.00 76 1011.1
20260505031507 13 219 1.6 6.4 0.00 0.00 0.00 75 1011.1
20260505031411 13 228 1.6 6.4 0.00 0.00 0.00 76 1011.2
20260505031311 13 238 1.6 4.8 0.00 0.00 0.00 76 1011.2
20260505031207 13 237 3.2 6.4 0.00 0.00 0.00 76 1011.2
20260505031111 13 236 3.2 6.4 0.00 0.00 0.00 77 1011.2
20260505031011 13 232 3.2 6.4 0.00 0.00 0.00 77 1011.3
20260505030909 13 230 4.8 6.4 0.00 0.00 0.00 77 1011.2
20260505030810 13 230 4.8 6.4 0.00 0.00 0.00 77 1011.2
20260505030710 13 231 4.8 6.4 0.00 0.00 0.00 77 1011.3
20260505030608 13 230 4.8 6.4 0.00 0.00 0.00 76 1011.3
20260505030510 13 232 4.8 6.4 0.00 0.00 0.00 76 1011.2
20260505030412 13 237 3.2 6.4 0.00 0.00 0.00 75 1011.1
20260505030310 13 243 3.2 6.4 0.00 0.00 0.00 75 1011.1
20260505030308 14 250 3.2 6.4 0.00 0.00 0.00 75 1011.2
20260505030210 14 250 3.2 6.4 0.00 0.00 0.00 75 1011.2
20260505030110 14 260 3.2 6.4 0.00 0.00 0.00 75 1011.2
20260505030007 14 273 3.2 6.4 0.00 0.00 0.00 75 1011.1
20260505025911 14 289 3.2 4.8 0.00 0.00 0.00 75 1011.1
20260505025810 14 294 3.2 4.8 0.00 0.00 0.00 75 1011.1
20260505025708 14 295 3.2 4.8 0.00 0.00 0.00 75 1011.1
20260505025610 14 297 3.2 4.8 0.00 0.00 0.00 75 1011.1
20260505025512 14 303 3.2 4.8 0.00 0.00 0.00 75 1011.1
20260505025407 14 309 3.2 4.8 0.00 0.00 0.00 75 1011.1
20260505025311 14 312 3.2 4.8 0.00 0.00 0.00 74 1011.1
20260505025210 14 315 3.2 4.8 0.00 0.00 0.00 74 1011.1
20260505025108 14 321 1.6 4.8 0.00 0.00 0.00 74 1011.2
20260505025010 14 326 1.6 3.2 0.00 0.00 0.00 73 1011.3
20260505024912 14 326 1.6 3.2 0.00 0.00 0.00 73 1011.3
20260505024808 14 331 1.6 3.2 0.00 0.00 0.00 72 1011.2
20260505024710 14 337 1.6 3.2 0.00 0.00 0.00 72 1011.2
20260505024612 15 338 1.6 4.8 0.00 0.00 0.00 72 1011.1
20260505024507 15 338 1.6 4.8 0.00 0.00 0.00 70 1011.2
20260505024410 15 335 1.6 4.8 0.00 0.00 0.00 70 1011.2
20260505024312 15 336 1.6 4.8 0.00 0.00 0.00 70 1011.2
20260505024207 15 336 1.6 4.8 0.00 0.00 0.00 70 1011.2
20260505024111 15 338 1.6 4.8 0.00 0.00 0.00 70 1011.2
20260505024011 14 347 1.6 6.4 0.00 0.00 0.00 70 1011.2
20260505023911 14 347 1.6 6.4 0.00 0.00 0.00 69 1011.2
20260505023908 14 345 1.6 6.4 0.00 0.00 0.00 69 1011.2
20260505023810 14 345 1.6 6.4 0.00 0.00 0.00 69 1011.2
20260505023712 14 345 1.6 6.4 0.00 0.00 0.00 69 1011.1
20260505023607 14 353 1.6 6.4 0.00 0.00 0.00 70 1011.3
20260505023511 14 7 1.6 6.4 0.00 0.00 0.00 70 1011.2
20260505023410 14 45 0.0 6.4 0.00 0.00 0.00 70 1011.2
20260505023307 14 86 0.0 6.4 0.00 0.00 0.00 70 1011.3
20260505023211 14 116 0.0 6.4 0.00 0.00 0.00 69 1011.3
20260505023111 14 128 0.0 6.4 0.00 0.00 0.00 70 1011.3
20260505023008 15 157 0.0 1.6 0.00 0.00 0.00 70 1011.3
20260505022910 15 159 0.0 1.6 0.00 0.00 0.00 70 1011.2
20260505022811 15 160 0.0 1.6 0.00 0.00 0.00 70 1011.2
20260505022708 15 160 0.0 3.2 0.00 0.00 0.00 69 1011.2
20260505022610 15 159 0.0 3.2 0.00 0.00 0.00 68 1011.2
20260505022510 15 155 0.0 3.2 0.00 0.00 0.00 68 1011.2
20260505022408 15 153 0.0 3.2 0.00 0.00 0.00 69 1011.2
20260505022311 15 152 0.0 3.2 0.00 0.00 0.00 68 1011.2
20260505022211 15 150 0.0 3.2 0.00 0.00 0.00 68 1011.2
20260505022107 15 150 0.0 3.2 0.00 0.00 0.00 67 1011.2
20260505022011 15 150 0.0 3.2 0.00 0.00 0.00 67 1011.2
20260505021911 15 149 0.0 3.2 0.00 0.00 0.00 67 1011.2
20260505021807 15 146 0.0 3.2 0.00 0.00 0.00 67 1011.2
20260505021711 15 136 0.0 3.2 0.00 0.00 0.00 67 1011.3
20260505021611 15 70 0.0 0.0 0.00 0.00 0.00 67 1011.3
20260505021507 15 9 0.0 0.0 0.00 0.00 0.00 67 1011.2
20260505021411 15 3 0.0 0.0 0.00 0.00 0.00 67 1011.2
20260505021310 15 2 0.0 0.0 0.00 0.00 0.00 67 1011.2
20260505021207 15 2 0.0 0.0 0.00 0.00 0.00 67 1011.2
20260505021111 15 4 0.0 1.6 0.00 0.00 0.00 66 1011.2
20260505021010 15 8 0.0 3.2 0.00 0.00 0.00 66 1011.2
20260505020908 15 4 0.0 3.2 0.00 0.00 0.00 66 1011.2
20260505020811 15 352 0.0 3.2 0.00 0.00 0.00 65 1011.2
20260505020711 15 349 0.0 3.2 0.00 0.00 0.00 65 1011.3
20260505020607 15 354 1.6 3.2 0.00 0.00 0.00 65 1011.3
20260505020511 15 346 1.6 4.8 0.00 0.00 0.00 65 1011.3
20260505020411 15 340 1.6 4.8 0.00 0.00 0.00 65 1011.3
20260505020308 15 332 1.6 4.8 0.00 0.00 0.00 65 1011.4
20260505020210 15 325 1.6 4.8 0.00 0.00 0.00 65 1011.3
20260505020110 15 320 1.6 4.8 0.00 0.00 0.00 65 1011.3
20260505020008 15 308 1.6 4.8 0.00 0.00 0.00 65 1011.4
20260505015911 15 300 1.6 4.8 0.00 0.00 0.00 64 1011.5
20260505015811 15 296 1.6 4.8 0.00 0.00 0.00 64 1011.5
20260505015708 15 286 1.6 4.8 0.00 0.00 0.00 65 1011.5
20260505015610 15 273 1.6 4.8 0.00 0.00 0.00 65 1011.6
20260505015510 15 264 1.6 3.2 0.00 0.00 0.00 66 1011.6
20260505015408 15 267 1.6 3.2 0.00 0.00 0.00 67 1011.6
20260505015311 15 270 1.6 1.6 0.00 0.00 0.00 67 1011.6
20260505015211 15 271 1.6 1.6 0.00 0.00 0.00 68 1011.5
20260505015107 15 277 1.6 1.6 0.00 0.00 0.00 68 1011.5
20260505015011 15 280 0.0 1.6 0.00 0.00 0.00 68 1011.5
20260505014911 15 286 0.0 1.6 0.00 0.00 0.00 68 1011.6
20260505014807 15 298 0.0 1.6 0.00 0.00 0.00 68 1011.6
20260505014711 15 308 1.6 1.6 0.00 0.00 0.00 68 1011.7
20260505014611 15 316 1.6 1.6 0.00 0.00 0.00 67 1011.6
20260505014507 15 327 1.6 1.6 0.00 0.00 0.00 68 1011.6
20260505014411 15 337 1.6 1.6 0.00 0.00 0.00 68 1011.6
20260505014311 15 344 1.6 3.2 0.00 0.00 0.00 68 1011.6
20260505014207 15 349 1.6 3.2 0.00 0.00 0.00 67 1011.6
20260505014111 15 350 1.6 3.2 0.00 0.00 0.00 67 1011.6
20260505014011 15 349 1.6 3.2 0.00 0.00 0.00 67 1011.7
20260505013908 15 347 1.6 3.2 0.00 0.00 0.00 66 1011.7
20260505013812 15 344 1.6 3.2 0.00 0.00 0.00 66 1011.7
20260505013712 15 343 1.6 3.2 0.00 0.00 0.00 66 1011.8
20260505013607 15 340 1.6 3.2 0.00 0.00 0.00 66 1011.8
20260505013511 15 338 1.6 3.2 0.00 0.00 0.00 65 1011.6
20260505013411 15 335 1.6 3.2 0.00 0.00 0.00 66 1011.6
20260505013308 15 331 0.0 3.2 0.00 0.00 0.00 66 1011.6
20260505013210 15 325 0.0 3.2 0.00 0.00 0.00 66 1011.6
20260505013110 15 321 0.0 3.2 0.00 0.00 0.00 65 1011.7
20260505013008 15 317 0.0 3.2 0.00 0.00 0.00 65 1011.7
20260505012911 15 310 0.0 1.6 0.00 0.00 0.00 64 1011.7
20260505012811 15 310 0.0 0.0 0.00 0.00 0.00 64 1011.7
20260505012707 15 309 0.0 0.0 0.00 0.00 0.00 64 1011.7
20260505012611 15 309 0.0 0.0 0.00 0.00 0.00 64 1011.7
20260505012511 15 309 0.0 0.0 0.00 0.00 0.00 64 1011.8
20260505012407 15 309 0.0 0.0 0.00 0.00 0.00 65 1011.7
20260505012310 15 309 0.0 0.0 0.00 0.00 0.00 65 1011.7
20260505012210 15 309 0.0 0.0 0.00 0.00 0.00 65 1011.7
20260505012108 15 309 0.0 0.0 0.00 0.00 0.00 65 1011.8
20260505012010 15 309 0.0 0.0 0.00 0.00 0.00 65 1011.9
20260505011910 15 309 0.0 1.6 0.00 0.00 0.00 65 1011.7
20260505011808 15 309 0.0 1.6 0.00 0.00 0.00 65 1011.8
20260505011711 15 309 0.0 1.6 0.00 0.00 0.00 65 1011.9
20260505011611 15 309 0.0 1.6 0.00 0.00 0.00 65 1011.8
20260505011507 15 309 0.0 1.6 0.00 0.00 0.00 65 1011.8
20260505011411 15 309 0.0 1.6 0.00 0.00 0.00 66 1011.8
20260505011310 15 309 0.0 1.6 0.00 0.00 0.00 66 1011.9
20260505011207 15 309 0.0 1.6 0.00 0.00 0.00 66 1012.0
20260505011111 15 309 0.0 1.6 0.00 0.00 0.00 66 1011.9
20260505011011 15 309 1.6 1.6 0.00 0.00 0.00 66 1012.0
20260505010908 15 309 1.6 3.2 0.00 0.00 0.00 66 1012.1
20260505010812 15 308 1.6 3.2 0.00 0.00 0.00 66 1012.1
20260505010712 15 306 1.6 3.2 0.00 0.00 0.00 66 1012.0
20260505010608 15 304 1.6 3.2 0.00 0.00 0.00 66 1012.0
20260505010510 15 302 1.6 3.2 0.00 0.00 0.00 67 1012.1
20260505010410 15 300 1.6 3.2 0.00 0.00 0.00 67 1012.1
20260505010307 15 298 1.6 3.2 0.00 0.00 0.00 66 1012.0
20260505010211 15 293 1.6 3.2 0.00 0.00 0.00 66 1012.1
20260505010111 15 289 0.0 3.2 0.00 0.00 0.00 66 1012.1
20260505010007 15 284 0.0 3.2 0.00 0.00 0.00 67 1012.2
20260505005911 15 277 0.0 3.2 0.00 0.00 0.00 67 1012.2
20260505005811 15 270 0.0 1.6 0.00 0.00 0.00 67 1012.2
20260505005707 15 264 0.0 1.6 0.00 0.00 0.00 67 1012.2
20260505005611 15 255 0.0 1.6 0.00 0.00 0.00 67 1012.2
20260505005511 15 248 0.0 1.6 0.00 0.00 0.00 67 1012.2
20260505005407 15 241 0.0 1.6 0.00 0.00 0.00 67 1012.2
20260505005311 15 234 0.0 3.2 0.00 0.00 0.00 67 1012.4
20260505005211 15 236 0.0 3.2 0.00 0.00 0.00 67 1012.3
20260505005107 15 236 0.0 3.2 0.00 0.00 0.00 67 1012.4
20260505005011 15 236 0.0 3.2 0.00 0.00 0.00 67 1012.4
20260505004911 15 235 1.6 3.2 0.00 0.00 0.00 67 1012.4
20260505004807 15 235 1.6 3.2 0.00 0.00 0.00 67 1012.5
20260505004711 15 235 1.6 3.2 0.00 0.00 0.00 67 1012.4
20260505004611 15 235 1.6 3.2 0.00 0.00 0.00 67 1012.5
20260505004509 15 234 1.6 3.2 0.00 0.00 0.00 67 1012.5
20260505004412 15 235 1.6 3.2 0.00 0.00 0.00 67 1012.5
20260505004311 15 237 1.6 3.2 0.00 0.00 0.00 67 1012.5
20260505004209 15 235 0.0 3.2 0.00 0.00 0.00 67 1012.5
20260505004111 15 235 0.0 3.2 0.00 0.00 0.00 67 1012.6
20260505004012 15 235 0.0 3.2 0.00 0.00 0.00 67 1012.6
20260505003907 15 235 0.0 1.6 0.00 0.00 0.00 67 1012.6
20260505003810 15 235 0.0 1.6 0.00 0.00 0.00 67 1012.6
20260505003710 15 235 0.0 1.6 0.00 0.00 0.00 67 1012.6
20260505003608 15 235 0.0 1.6 0.00 0.00 0.00 67 1012.6
20260505003510 15 235 0.0 3.2 0.00 0.00 0.00 67 1012.7
20260505003412 15 235 0.0 3.2 0.00 0.00 0.00 67 1012.6
20260505003307 15 235 1.6 3.2 0.00 0.00 0.00 67 1012.6
20260505003211 15 235 1.6 3.2 0.00 0.00 0.00 67 1012.6
20260505003110 15 237 1.6 3.2 0.00 0.00 0.00 67 1012.7
20260505003008 15 238 1.6 3.2 0.00 0.00 0.00 66 1012.7
20260505002911 15 239 1.6 3.2 0.00 0.00 0.00 66 1012.7
20260505002812 15 242 1.6 3.2 0.00 0.00 0.00 66 1012.7